Wetterdaten: Montag, 11.02.2019
Datum Zeit Temp. Aussen Temp. o. S. +5cm Feuchte Auss Luftdruck Regen Sonnenschein Regendauer Solar Windben Empfang
11.02.2019 00:00 3,3 C 2,8 C 2,2 C 97 % 1001,6 hPa 0,2 l/m 0 min 2 min 0 W/m 25,7 km/h (4 Bft) 95,74 %
11.02.2019 00:02 3,3 C 2,8 C 2,2 C 97 % 1001,7 hPa 0,0 l/m 0 min 2 min 0 W/m 25,7 km/h (4 Bft) 93,02 %
11.02.2019 00:04 3,3 C 2,8 C 2,2 C 97 % 1001,8 hPa 0,0 l/m 0 min 2 min 0 W/m 22,5 km/h (4 Bft) 95,65 %
11.02.2019 00:07 3,3 C 2,8 C 2,2 C 97 % 1001,9 hPa 0,0 l/m 0 min 3 min 0 W/m 22,5 km/h (4 Bft) 97,18 %
11.02.2019 00:08 3,3 C 2,8 C 2,2 C 97 % 1001,8 hPa 0,0 l/m 0 min 1 min 0 W/m 16,1 km/h (3 Bft) 95,65 %
11.02.2019 00:10 3,3 C 2,8 C 2,2 C 97 % 1001,9 hPa 0,0 l/m 0 min 2 min 0 W/m 22,5 km/h (4 Bft) 97,87 %
11.02.2019 00:12 3,3 C 2,8 C 2,2 C 97 % 1001,9 hPa 0,0 l/m 0 min 2 min 0 W/m 19,3 km/h (3 Bft) 95,24 %
11.02.2019 00:14 3,3 C 2,8 C 2,2 C 97 % 1001,9 hPa 0,0 l/m 0 min 2 min 0 W/m 12,9 km/h (3 Bft) 97,96 %
11.02.2019 00:16 3,3 C 2,8 C 2,2 C 97 % 1001,9 hPa 0,2 l/m 0 min 2 min 0 W/m 25,7 km/h (4 Bft) 95,74 %
11.02.2019 00:18 3,3 C 2,8 C 2,2 C 97 % 1002,1 hPa 0,0 l/m 0 min 2 min 0 W/m 22,5 km/h (4 Bft) 97,96 %
11.02.2019 00:20 3,3 C 2,8 C 2,2 C 97 % 1002,1 hPa 0,0 l/m 0 min 2 min 0 W/m 19,3 km/h (3 Bft) 97,83 %
11.02.2019 00:22 3,3 C 2,8 C 2,2 C 97 % 1002,1 hPa 0,0 l/m 0 min 2 min 0 W/m 12,9 km/h (3 Bft) 93,75 %
11.02.2019 00:24 3,3 C 2,8 C 2,2 C 97 % 1002,2 hPa 0,0 l/m 0 min 2 min 0 W/m 16,1 km/h (3 Bft) 97,87 %
11.02.2019 00:26 3,3 C 2,8 C 2,2 C 97 % 1002,3 hPa 0,0 l/m 0 min 2 min 0 W/m 16,1 km/h (3 Bft) 97,87 %
11.02.2019 00:28 3,3 C 2,8 C 2,2 C 97 % 1002,3 hPa 0,0 l/m 0 min 2 min 0 W/m 22,5 km/h (4 Bft) 95,65 %
11.02.2019 00:30 3,3 C 2,8 C 2,2 C 97 % 1002,4 hPa 0,0 l/m 0 min 2 min 0 W/m 16,1 km/h (3 Bft) 97,87 %
11.02.2019 00:32 3,3 C 2,8 C 2,2 C 97 % 1002,4 hPa 0,0 l/m 0 min 2 min 0 W/m 16,1 km/h (3 Bft) 95,35 %
11.02.2019 00:34 3,3 C 2,8 C 2,2 C 97 % 1002,4 hPa 0,2 l/m 0 min 2 min 0 W/m 25,7 km/h (4 Bft) 95,92 %
11.02.2019 00:36 3,3 C 2,8 C 2,2 C 98 % 1002,6 hPa 0,0 l/m 0 min 2 min 0 W/m 19,3 km/h (3 Bft) 91,49 %
11.02.2019 00:38 3,3 C 2,8 C 2,2 C 98 % 1002,6 hPa 0,0 l/m 0 min 2 min 0 W/m 19,3 km/h (3 Bft) 95,92 %
11.02.2019 00:40 3,3 C 2,8 C 2,2 C 98 % 1002,6 hPa 0,0 l/m 0 min 2 min 0 W/m 12,9 km/h (3 Bft) 95,65 %
11.02.2019 00:42 3,3 C 2,8 C 2,2 C 98 % 1002,8 hPa 0,0 l/m 0 min 2 min 0 W/m 19,3 km/h (3 Bft) 95,74 %
11.02.2019 00:44 3,3 C 2,8 C 2,2 C 98 % 1002,8 hPa 0,0 l/m 0 min 2 min 0 W/m 19,3 km/h (3 Bft) 95,12 %
11.02.2019 00:46 3,3 C 2,8 C 2,2 C 98 % 1002,8 hPa 0,0 l/m 0 min 2 min 0 W/m 16,1 km/h (3 Bft) 95,92 %
11.02.2019 00:48 3,3 C 2,8 C 2,2 C 98 % 1002,9 hPa 0,0 l/m 0 min 2 min 0 W/m 16,1 km/h (3 Bft) 95,74 %
11.02.2019 00:50 3,3 C 2,8 C 2,2 C 98 % 1002,9 hPa 0,2 l/m 0 min 2 min 0 W/m 16,1 km/h (3 Bft) 95,92 %
11.02.2019 00:52 3,3 C 2,8 C 2,2 C 98 % 1002,9 hPa 0,0 l/m 0 min 2 min 0 W/m 25,7 km/h (4 Bft) 95,74 %
11.02.2019 00:54 3,3 C 2,8 C 2,2 C 98 % 1003,0 hPa 0,0 l/m 0 min 2 min 0 W/m 16,1 km/h (3 Bft) 95,83 %
11.02.2019 00:56 3,3 C 2,8 C 2,2 C 98 % 1003,1 hPa 0,0 l/m 0 min 2 min 0 W/m 19,3 km/h (3 Bft) 95,74 %
11.02.2019 00:58 3,3 C 2,8 C 2,2 C 98 % 1003,2 hPa 0,0 l/m 0 min 2 min 0 W/m 22,5 km/h (4 Bft) 97,87 %
11.02.2019 01:00 3,3 C 2,8 C 2,2 C 98 % 1003,2 hPa 0,0 l/m 0 min 2 min 0 W/m 16,1 km/h (3 Bft) 97,87 %
11.02.2019 01:02 3,3 C 2,8 C 2,2 C 98 % 1003,3 hPa 0,0 l/m 0 min 2 min 0 W/m 19,3 km/h (3 Bft) 95,65 %
11.02.2019 01:04 3,3 C 2,8 C 2,2 C 98 % 1003,3 hPa 0,0 l/m 0 min 2 min 0 W/m 16,1 km/h (3 Bft) 97,87 %
11.02.2019 01:06 3,3 C 2,8 C 2,2 C 98 % 1003,4 hPa 0,0 l/m 0 min 2 min 0 W/m 25,7 km/h (4 Bft) 95,24 %
11.02.2019 01:08 3,3 C 2,8 C 2,2 C 98 % 1003,6 hPa 0,0 l/m 0 min 2 min 0 W/m 25,7 km/h (4 Bft) 97,92 %
11.02.2019 01:10 3,3 C 2,8 C 2,2 C 98 % 1003,6 hPa 0,0 l/m 0 min 2 min 0 W/m 16,1 km/h (3 Bft) 97,87 %
11.02.2019 01:12 3,3 C 2,8 C 2,2 C 98 % 1003,7 hPa 0,0 l/m 0 min 2 min 0 W/m 16,1 km/h (3 Bft) 95,92 %
11.02.2019 01:14 3,3 C 2,8 C 2,2 C 98 % 1003,8 hPa 0,2 l/m 0 min 2 min 0 W/m 22,5 km/h (4 Bft) 97,96 %
11.02.2019 01:16 3,3 C 2,8 C 2,2 C 98 % 1003,9 hPa 0,0 l/m 0 min 2 min 0 W/m 16,1 km/h (3 Bft) 100,00 %
11.02.2019 01:18 3,3 C 2,8 C 2,2 C 98 % 1004,0 hPa 0,0 l/m 0 min 2 min 0 W/m 22,5 km/h (4 Bft) 100,00 %
11.02.2019 01:20 3,3 C 2,8 C 2,2 C 98 % 1004,0 hPa 0,0 l/m 0 min 2 min 0 W/m 16,1 km/h (3 Bft) 100,00 %
11.02.2019 01:22 3,3 C 2,2 C 2,2 C 98 % 1004,1 hPa 0,0 l/m 0 min 2 min 0 W/m 16,1 km/h (3 Bft) 97,87 %
11.02.2019 01:24 3,2 C 2,2 C 2,2 C 97 % 1004,2 hPa 0,0 l/m 0 min 2 min 0 W/m 22,5 km/h (4 Bft) 97,62 %
11.02.2019 01:26 3,2 C 2,2 C 2,2 C 97 % 1004,2 hPa 0,0 l/m 0 min 2 min 0 W/m 16,1 km/h (3 Bft) 100,00 %
11.02.2019 01:28 3,2 C 2,2 C 2,2 C 97 % 1004,2 hPa 0,0 l/m 0 min 2 min 0 W/m 16,1 km/h (3 Bft) 100,00 %
11.02.2019 01:30 3,2 C 2,2 C 2,2 C 98 % 1004,3 hPa 0,2 l/m 0 min 2 min 0 W/m 16,1 km/h (3 Bft) 97,92 %
11.02.2019 01:32 3,2 C 2,2 C 2,2 C 97 % 1004,3 hPa 0,0 l/m 0 min 2 min 0 W/m 12,9 km/h (3 Bft) 97,92 %
11.02.2019 01:34 3,2 C 2,2 C 2,2 C 98 % 1004,4 hPa 0,0 l/m 0 min 2 min 0 W/m 16,1 km/h (3 Bft) 100,00 %
11.02.2019 01:36 3,1 C 2,2 C 2,2 C 98 % 1004,4 hPa 0,0 l/m 0 min 2 min 0 W/m 19,3 km/h (3 Bft) 97,56 %
11.02.2019 01:38 3,1 C 2,2 C 2,2 C 98 % 1004,4 hPa 0,0 l/m 0 min 2 min 0 W/m 16,1 km/h (3 Bft) 100,00 %
11.02.2019 01:40 3,1 C 2,2 C 2,2 C 98 % 1004,5 hPa 0,0 l/m 0 min 2 min 0 W/m 16,1 km/h (3 Bft) 100,00 %
11.02.2019 01:42 3,1 C 2,2 C 2,2 C 98 % 1004,5 hPa 0,0 l/m 0 min 2 min 0 W/m 16,1 km/h (3 Bft) 100,00 %
11.02.2019 01:44 3,1 C 2,2 C 2,2 C 98 % 1004,6 hPa 0,0 l/m 0 min 2 min 0 W/m 22,5 km/h (4 Bft) 100,00 %
11.02.2019 01:46 3,1 C 2,2 C 2,2 C 98 % 1004,6 hPa 0,0 l/m 0 min 2 min 0 W/m 22,5 km/h (4 Bft) 100,00 %
11.02.2019 01:48 3,1 C 2,2 C 2,2 C 98 % 1004,6 hPa 0,0 l/m 0 min 2 min 0 W/m 19,3 km/h (3 Bft) 100,00 %
11.02.2019 01:50 3,1 C 2,2 C 2,2 C 98 % 1004,6 hPa 0,0 l/m 0 min 2 min 0 W/m 12,9 km/h (3 Bft) 100,00 %
11.02.2019 01:52 3,1 C 2,2 C 2,2 C 98 % 1004,7 hPa 0,0 l/m 0 min 2 min 0 W/m 22,5 km/h (4 Bft) 100,00 %
11.02.2019 01:54 3,1 C 2,2 C 2,2 C 98 % 1004,7 hPa 0,0 l/m 0 min 2 min 0 W/m 25,7 km/h (4 Bft) 100,00 %
11.02.2019 01:56 3,1 C 2,2 C 2,2 C 98 % 1004,7 hPa 0,0 l/m 0 min 2 min 0 W/m 16,1 km/h (3 Bft) 100,00 %
11.02.2019 01:58 3,1 C 2,2 C 2,2 C 98 % 1004,8 hPa 0,0 l/m 0 min 2 min 0 W/m 19,3 km/h (3 Bft) 100,00 %
11.02.2019 02:00 3,1 C 2,2 C 2,2 C 98 % 1004,8 hPa 0,0 l/m 0 min 2 min 0 W/m 12,9 km/h (3 Bft) 100,00 %
11.02.2019 02:02 3,1 C 2,2 C 2,2 C 98 % 1004,9 hPa 0,0 l/m 0 min 2 min 0 W/m 22,5 km/h (4 Bft) 95,35 %
11.02.2019 02:04 3,1 C 2,8 C 2,2 C 98 % 1005,0 hPa 0,0 l/m 0 min 2 min 0 W/m 16,1 km/h (3 Bft) 96,08 %
11.02.2019 02:06 3,2 C 2,8 C 2,2 C 98 % 1004,9 hPa 0,2 l/m 0 min 2 min 0 W/m 12,9 km/h (3 Bft) 97,87 %
11.02.2019 02:08 3,2 C 2,8 C 2,2 C 98 % 1004,9 hPa 0,0 l/m 0 min 2 min 0 W/m 16,1 km/h (3 Bft) 100,00 %
11.02.2019 02:10 3,2 C 2,8 C 2,2 C 98 % 1005,0 hPa 0,0 l/m 0 min 2 min 0 W/m 16,1 km/h (3 Bft) 100,00 %
11.02.2019 02:12 3,2 C 2,8 C 2,2 C 98 % 1005,1 hPa 0,0 l/m 0 min 2 min 0 W/m 22,5 km/h (4 Bft) 97,56 %
11.02.2019 02:14 3,2 C 2,8 C 2,2 C 98 % 1005,1 hPa 0,0 l/m 0 min 2 min 0 W/m 9,7 km/h (2 Bft) 97,96 %
11.02.2019 02:16 3,2 C 2,8 C 2,2 C 98 % 1005,1 hPa 0,0 l/m 0 min 2 min 0 W/m 19,3 km/h (3 Bft) 100,00 %
11.02.2019 02:18 3,2 C 2,8 C 2,2 C 98 % 1005,2 hPa 0,0 l/m 0 min 2 min 0 W/m 16,1 km/h (3 Bft) 100,00 %
11.02.2019 02:20 3,2 C 2,8 C 2,2 C 98 % 1005,2 hPa 0,0 l/m 0 min 2 min 0 W/m 16,1 km/h (3 Bft) 97,87 %
11.02.2019 02:22 3,2 C 2,8 C 2,2 C 98 % 1005,3 hPa 0,2 l/m 0 min 2 min 0 W/m 16,1 km/h (3 Bft) 97,87 %
11.02.2019 02:24 3,2 C 2,8 C 2,2 C 98 % 1005,4 hPa 0,0 l/m 0 min 2 min 0 W/m 16,1 km/h (3 Bft) 97,56 %
11.02.2019 02:26 3,2 C 2,8 C 2,2 C 98 % 1005,4 hPa 0,0 l/m 0 min 2 min 0 W/m 19,3 km/h (3 Bft) 97,96 %
11.02.2019 02:28 3,3 C 2,8 C 2,2 C 98 % 1005,4 hPa 0,0 l/m 0 min 2 min 0 W/m 12,9 km/h (3 Bft) 97,92 %
11.02.2019 02:30 3,3 C 2,8 C 2,2 C 98 % 1005,5 hPa 0,0 l/m 0 min 0 min 0 W/m 9,7 km/h (2 Bft) 95,92 %
11.02.2019 02:32 3,3 C 2,8 C 2,2 C 98 % 1005,6 hPa 0,0 l/m 0 min 0 min 0 W/m 6,4 km/h (2 Bft) 97,87 %
11.02.2019 02:34 3,3 C 2,8 C 2,2 C 98 % 1005,5 hPa 0,0 l/m 0 min 0 min 0 W/m 6,4 km/h (2 Bft) 95,74 %
11.02.2019 02:36 3,3 C 2,8 C 2,2 C 98 % 1005,7 hPa 0,0 l/m 0 min 0 min 0 W/m 16,1 km/h (3 Bft) 95,65 %
11.02.2019 02:38 3,3 C 2,8 C 2,2 C 98 % 1005,7 hPa 0,0 l/m 0 min 0 min 0 W/m 6,4 km/h (2 Bft) 97,92 %
11.02.2019 02:40 3,3 C 2,8 C 2,2 C 98 % 1005,7 hPa 0,0 l/m 0 min 0 min 0 W/m 9,7 km/h (2 Bft) 97,87 %
11.02.2019 02:42 3,3 C 2,8 C 2,2 C 98 % 1005,7 hPa 0,0 l/m 0 min 0 min 0 W/m 6,4 km/h (2 Bft) 95,74 %
11.02.2019 02:44 3,3 C 2,8 C 2,2 C 98 % 1005,9 hPa 0,0 l/m 0 min 0 min 0 W/m 9,7 km/h (2 Bft) 97,62 %
11.02.2019 02:46 3,3 C 2,8 C 2,2 C 98 % 1005,9 hPa 0,0 l/m 0 min 0 min 0 W/m 6,4 km/h (2 Bft) 97,87 %
11.02.2019 02:48 3,3 C 2,8 C 2,2 C 98 % 1005,8 hPa 0,0 l/m 0 min 0 min 0 W/m 9,7 km/h (2 Bft) 97,96 %
11.02.2019 02:50 3,3 C 2,8 C 2,2 C 98 % 1005,9 hPa 0,0 l/m 0 min 0 min 0 W/m 12,9 km/h (3 Bft) 97,87 %
11.02.2019 02:52 3,3 C 2,8 C 2,2 C 98 % 1005,9 hPa 0,0 l/m 0 min 0 min 0 W/m 9,7 km/h (2 Bft) 97,92 %
11.02.2019 02:54 3,3 C 2,2 C 2,2 C 98 % 1005,9 hPa 0,0 l/m 0 min 0 min 0 W/m 6,4 km/h (2 Bft) 95,83 %
11.02.2019 02:56 3,2 C 2,2 C 2,2 C 98 % 1005,9 hPa 0,0 l/m 0 min 0 min 0 W/m 6,4 km/h (2 Bft) 95,74 %
11.02.2019 02:58 3,2 C 2,2 C 2,2 C 98 % 1006,0 hPa 0,0 l/m 0 min 0 min 0 W/m 9,7 km/h (2 Bft) 97,83 %
11.02.2019 03:00 3,2 C 2,2 C 2,2 C 98 % 1006,0 hPa 0,0 l/m 0 min 0 min 0 W/m 9,7 km/h (2 Bft) 95,74 %
11.02.2019 03:02 3,2 C 2,2 C 2,2 C 98 % 1006,0 hPa 0,0 l/m 0 min 0 min 0 W/m 12,9 km/h (3 Bft) 95,74 %
11.02.2019 03:04 3,2 C 2,2 C 2,2 C 98 % 1006,0 hPa 0,0 l/m 0 min 0 min 0 W/m 9,7 km/h (2 Bft) 95,74 %
11.02.2019 03:06 3,2 C 2,2 C 2,2 C 98 % 1006,0 hPa 0,0 l/m 0 min 0 min 0 W/m 12,9 km/h (3 Bft) 91,49 %
11.02.2019 03:08 3,2 C 2,2 C 2,2 C 98 % 1006,1 hPa 0,0 l/m 0 min 0 min 0 W/m 12,9 km/h (3 Bft) 95,12 %
11.02.2019 03:10 3,2 C 2,8 C 2,2 C 98 % 1006,0 hPa 0,0 l/m 0 min 0 min 0 W/m 12,9 km/h (3 Bft) 95,74 %
11.02.2019 03:12 3,2 C 2,8 C 2,2 C 98 % 1006,0 hPa 0,0 l/m 0 min 0 min 0 W/m 16,1 km/h (3 Bft) 95,92 %
11.02.2019 03:14 3,2 C 2,8 C 2,2 C 98 % 1006,0 hPa 0,2 l/m 0 min 0 min 0 W/m 22,5 km/h (4 Bft) 93,75 %
11.02.2019 03:16 3,2 C 2,8 C 2,2 C 98 % 1006,1 hPa 0,0 l/m 0 min 0 min 0 W/m 6,4 km/h (2 Bft) 97,96 %
11.02.2019 03:18 3,2 C 2,8 C 2,2 C 98 % 1006,1 hPa 0,0 l/m 0 min 0 min 0 W/m 9,7 km/h (2 Bft) 95,74 %
11.02.2019 03:20 3,2 C 2,8 C 2,2 C 98 % 1006,1 hPa 0,0 l/m 0 min 0 min 0 W/m 12,9 km/h (3 Bft) 95,74 %
11.02.2019 03:22 3,2 C 2,8 C 2,2 C 98 % 1006,2 hPa 0,0 l/m 0 min 0 min 0 W/m 16,1 km/h (3 Bft) 95,12 %
11.02.2019 03:24 3,2 C 2,8 C 2,2 C 98 % 1006,1 hPa 0,0 l/m 0 min 0 min 0 W/m 25,7 km/h (4 Bft) 95,92 %
11.02.2019 03:26 3,3 C 2,8 C 2,2 C 98 % 1006,2 hPa 0,0 l/m 0 min 0 min 0 W/m 16,1 km/h (3 Bft) 95,83 %
11.02.2019 03:28 3,3 C 2,8 C 2,2 C 98 % 1006,2 hPa 0,0 l/m 0 min 0 min 0 W/m 19,3 km/h (3 Bft) 93,88 %
11.02.2019 03:30 3,3 C 2,8 C 2,2 C 98 % 1006,2 hPa 0,0 l/m 0 min 0 min 0 W/m 12,9 km/h (3 Bft) 93,62 %
11.02.2019 03:32 3,3 C 2,8 C 2,2 C 98 % 1006,2 hPa 0,0 l/m 0 min 0 min 0 W/m 12,9 km/h (3 Bft) 95,74 %
11.02.2019 03:34 3,3 C 2,8 C 2,2 C 98 % 1006,3 hPa 0,0 l/m 0 min 0 min 0 W/m 12,9 km/h (3 Bft) 95,65 %
11.02.2019 03:36 3,3 C 2,8 C 2,2 C 98 % 1006,4 hPa 0,0 l/m 0 min 0 min 0 W/m 16,1 km/h (3 Bft) 95,74 %
11.02.2019 03:38 3,3 C 2,8 C 2,2 C 98 % 1006,5 hPa 0,0 l/m 0 min 0 min 0 W/m 16,1 km/h (3 Bft) 95,35 %
11.02.2019 03:40 3,3 C 2,8 C 2,2 C 98 % 1006,4 hPa 0,0 l/m 0 min 0 min 0 W/m 12,9 km/h (3 Bft) 95,65 %
11.02.2019 03:42 3,3 C 2,8 C 2,2 C 98 % 1006,5 hPa 0,0 l/m 0 min 0 min 0 W/m 16,1 km/h (3 Bft) 95,92 %
11.02.2019 03:44 3,3 C 2,8 C 2,2 C 98 % 1006,6 hPa 0,0 l/m 0 min 0 min 0 W/m 12,9 km/h (3 Bft) 97,96 %
11.02.2019 03:46 3,3 C 2,8 C 2,2 C 98 % 1006,6 hPa 0,0 l/m 0 min 0 min 0 W/m 19,3 km/h (3 Bft) 95,74 %
11.02.2019 03:48 3,3 C 2,8 C 2,2 C 98 % 1006,6 hPa 0,0 l/m 0 min 0 min 0 W/m 12,9 km/h (3 Bft) 97,87 %
11.02.2019 03:50 3,3 C 2,8 C 2,2 C 98 % 1006,7 hPa 0,0 l/m 0 min 0 min 0 W/m 16,1 km/h (3 Bft) 97,87 %
11.02.2019 03:52 3,3 C 2,8 C 2,2 C 98 % 1006,7 hPa 0,0 l/m 0 min 0 min 0 W/m 16,1 km/h (3 Bft) 97,87 %
11.02.2019 03:54 3,3 C 2,8 C 2,2 C 98 % 1006,8 hPa 0,0 l/m 0 min 0 min 0 W/m 19,3 km/h (3 Bft) 97,87 %
11.02.2019 03:56 3,3 C 2,8 C 2,2 C 98 % 1006,9 hPa 0,0 l/m 0 min 0 min 0 W/m 9,7 km/h (2 Bft) 95,24 %
11.02.2019 03:58 3,3 C 2,8 C 2,2 C 98 % 1006,9 hPa 0,0 l/m 0 min 0 min 0 W/m 9,7 km/h (2 Bft) 97,87 %
11.02.2019 04:00 3,3 C 2,8 C 2,2 C 98 % 1006,9 hPa 0,0 l/m 0 min 0 min 0 W/m 25,7 km/h (4 Bft) 95,74 %
11.02.2019 04:02 3,3 C 2,8 C 2,2 C 98 % 1007,1 hPa 0,0 l/m 0 min 0 min 0 W/m 9,7 km/h (2 Bft) 100,00 %
11.02.2019 04:04 3,3 C 2,8 C 2,2 C 98 % 1007,1 hPa 0,0 l/m 0 min 0 min 0 W/m 12,9 km/h (3 Bft) 100,00 %
11.02.2019 04:06 3,3 C 2,8 C 2,2 C 98 % 1007,3 hPa 0,0 l/m 0 min 0 min 0 W/m 16,1 km/h (3 Bft) 97,87 %
11.02.2019 04:08 3,3 C 2,8 C 2,2 C 98 % 1007,2 hPa 0,0 l/m 0 min 0 min 0 W/m 9,7 km/h (2 Bft) 97,96 %
11.02.2019 04:10 3,3 C 2,8 C 2,2 C 98 % 1007,3 hPa 0,0 l/m 0 min 0 min 0 W/m 12,9 km/h (3 Bft) 100,00 %
11.02.2019 04:12 3,3 C 2,8 C 2,2 C 98 % 1007,2 hPa 0,0 l/m 0 min 0 min 0 W/m 16,1 km/h (3 Bft) 100,00 %
11.02.2019 04:14 3,3 C 2,8 C 2,2 C 98 % 1007,4 hPa 0,0 l/m 0 min 0 min 0 W/m 12,9 km/h (3 Bft) 100,00 %
11.02.2019 04:16 3,3 C 2,8 C 2,2 C 98 % 1007,3 hPa 0,0 l/m 0 min 0 min 0 W/m 16,1 km/h (3 Bft) 100,00 %
11.02.2019 04:18 3,3 C 2,8 C 2,2 C 98 % 1007,4 hPa 0,0 l/m 0 min 0 min 0 W/m 12,9 km/h (3 Bft) 97,87 %
11.02.2019 04:20 3,3 C 2,8 C 2,2 C 98 % 1007,4 hPa 0,0 l/m 0 min 0 min 0 W/m 19,3 km/h (3 Bft) 100,00 %
11.02.2019 04:22 3,3 C 2,8 C 2,2 C 98 % 1007,3 hPa 0,0 l/m 0 min 0 min 0 W/m 12,9 km/h (3 Bft) 100,00 %
11.02.2019 04:24 3,3 C 2,8 C 2,2 C 98 % 1007,4 hPa 0,0 l/m 0 min 0 min 0 W/m 16,1 km/h (3 Bft) 100,00 %
11.02.2019 04:26 3,3 C 2,8 C 2,2 C 98 % 1007,4 hPa 0,0 l/m 0 min 0 min 0 W/m 25,7 km/h (4 Bft) 97,87 %
11.02.2019 04:28 3,4 C 2,8 C 2,2 C 98 % 1007,6 hPa 0,0 l/m 0 min 0 min 0 W/m 19,3 km/h (3 Bft) 100,00 %
11.02.2019 04:30 3,4 C 2,8 C 2,2 C 98 % 1007,5 hPa 0,0 l/m 0 min 0 min 0 W/m 9,7 km/h (2 Bft) 100,00 %
11.02.2019 04:32 3,4 C 2,8 C 2,2 C 98 % 1007,5 hPa 0,0 l/m 0 min 0 min 0 W/m 16,1 km/h (3 Bft) 100,00 %
11.02.2019 04:34 3,4 C 2,8 C 2,2 C 98 % 1007,5 hPa 0,0 l/m 0 min 0 min 0 W/m 16,1 km/h (3 Bft) 100,00 %
11.02.2019 04:36 3,4 C 2,8 C 2,2 C 98 % 1007,6 hPa 0,0 l/m 0 min 0 min 0 W/m 16,1 km/h (3 Bft) 100,00 %
11.02.2019 04:38 3,5 C 2,8 C 2,2 C 98 % 1007,6 hPa 0,0 l/m 0 min 0 min 0 W/m 19,3 km/h (3 Bft) 100,00 %
11.02.2019 04:40 3,5 C 2,8 C 2,8 C 98 % 1007,5 hPa 0,0 l/m 0 min 0 min 0 W/m 19,3 km/h (3 Bft) 100,00 %
11.02.2019 04:42 3,5 C 2,8 C 2,8 C 98 % 1007,6 hPa 0,0 l/m 0 min 0 min 0 W/m 22,5 km/h (4 Bft) 100,00 %
11.02.2019 04:44 3,6 C 2,8 C 2,8 C 98 % 1007,7 hPa 0,0 l/m 0 min 0 min 0 W/m 22,5 km/h (4 Bft) 100,00 %
11.02.2019 04:46 3,6 C 2,8 C 2,8 C 98 % 1007,7 hPa 0,0 l/m 0 min 0 min 0 W/m 9,7 km/h (2 Bft) 97,87 %
11.02.2019 04:48 3,6 C 2,8 C 2,8 C 98 % 1007,7 hPa 0,0 l/m 0 min 0 min 0 W/m 6,4 km/h (2 Bft) 97,87 %
11.02.2019 04:50 3,6 C 3,3 C 2,8 C 98 % 1007,7 hPa 0,0 l/m 0 min 0 min 0 W/m 25,7 km/h (4 Bft) 97,87 %
11.02.2019 04:52 3,6 C 3,3 C 2,8 C 98 % 1007,7 hPa 0,0 l/m 0 min 0 min 0 W/m 22,5 km/h (4 Bft) 100,00 %
11.02.2019 04:54 3,6 C 3,3 C 2,8 C 98 % 1007,7 hPa 0,0 l/m 0 min 0 min 0 W/m 12,9 km/h (3 Bft) 100,00 %
11.02.2019 04:56 3,6 C 2,8 C 2,8 C 98 % 1007,8 hPa 0,0 l/m 0 min 0 min 0 W/m 16,1 km/h (3 Bft) 97,87 %
11.02.2019 04:58 3,6 C 2,8 C 2,8 C 98 % 1007,9 hPa 0,0 l/m 0 min 0 min 0 W/m 12,9 km/h (3 Bft) 97,87 %
11.02.2019 05:00 3,6 C 2,8 C 2,8 C 98 % 1007,9 hPa 0,0 l/m 0 min 0 min 0 W/m 19,3 km/h (3 Bft) 97,83 %
11.02.2019 05:02 3,6 C 3,3 C 2,8 C 98 % 1008,0 hPa 0,0 l/m 0 min 0 min 0 W/m 22,5 km/h (4 Bft) 96,00 %
11.02.2019 05:04 3,7 C 2,8 C 2,8 C 98 % 1007,9 hPa 0,0 l/m 0 min 0 min 0 W/m 16,1 km/h (3 Bft) 100,00 %
11.02.2019 05:05 3,7 C 2,8 C 2,8 C 98 % 1008,1 hPa 0,0 l/m 0 min 0 min 0 W/m 22,5 km/h (4 Bft) 100,00 %
11.02.2019 05:15 3,6 C 2,8 C 2,8 C 98 % 1008,3 hPa 0,0 l/m 0 min 0 min 0 W/m 12,9 km/h (3 Bft) 98,31 %
11.02.2019 05:16 3,6 C 2,8 C 2,8 C 98 % 1008,3 hPa 0,0 l/m 0 min 0 min 0 W/m 12,9 km/h (3 Bft) 100,00 %
11.02.2019 05:18 3,6 C 2,8 C 2,8 C 98 % 1008,3 hPa 0,0 l/m 0 min 0 min 0 W/m 22,5 km/h (4 Bft) 97,87 %
11.02.2019 05:20 3,6 C 2,8 C 2,8 C 98 % 1008,5 hPa 0,0 l/m 0 min 0 min 0 W/m 25,7 km/h (4 Bft) 97,87 %
11.02.2019 05:22 3,6 C 2,8 C 2,8 C 98 % 1008,4 hPa 0,0 l/m 0 min 0 min 0 W/m 19,3 km/h (3 Bft) 95,65 %
11.02.2019 05:24 3,6 C 2,8 C 2,8 C 98 % 1008,6 hPa 0,0 l/m 0 min 0 min 0 W/m 19,3 km/h (3 Bft) 97,87 %
11.02.2019 05:26 3,6 C 2,8 C 2,2 C 98 % 1008,6 hPa 0,0 l/m 0 min 0 min 0 W/m 19,3 km/h (3 Bft) 97,87 %
11.02.2019 05:28 3,6 C 2,8 C 2,2 C 98 % 1008,6 hPa 0,0 l/m 0 min 0 min 0 W/m 19,3 km/h (3 Bft) 95,74 %
11.02.2019 05:30 3,6 C 2,8 C 2,2 C 98 % 1008,6 hPa 0,0 l/m 0 min 0 min 0 W/m 19,3 km/h (3 Bft) 97,87 %
11.02.2019 05:32 3,6 C 2,8 C 2,8 C 98 % 1008,8 hPa 0,0 l/m 0 min 0 min 0 W/m 29,0 km/h (5 Bft) 97,87 %
11.02.2019 05:34 3,6 C 2,8 C 2,2 C 98 % 1008,8 hPa 0,0 l/m 0 min 0 min 0 W/m 29,0 km/h (5 Bft) 95,65 %
11.02.2019 05:36 3,5 C 2,8 C 2,2 C 98 % 1008,8 hPa 0,0 l/m 0 min 0 min 0 W/m 25,7 km/h (4 Bft) 95,74 %
11.02.2019 05:38 3,5 C 2,8 C 2,2 C 98 % 1008,8 hPa 0,0 l/m 0 min 0 min 0 W/m 25,7 km/h (4 Bft) 95,74 %
11.02.2019 05:40 3,5 C 2,8 C 2,2 C 97 % 1008,8 hPa 0,0 l/m 0 min 0 min 0 W/m 16,1 km/h (3 Bft) 97,87 %
11.02.2019 05:42 3,5 C 2,8 C 2,2 C 97 % 1008,9 hPa 0,0 l/m 0 min 0 min 0 W/m 16,1 km/h (3 Bft) 95,74 %
11.02.2019 05:44 3,5 C 2,8 C 2,2 C 97 % 1008,8 hPa 0,0 l/m 0 min 0 min 0 W/m 12,9 km/h (3 Bft) 95,74 %
11.02.2019 05:46 3,5 C 2,8 C 2,2 C 97 % 1008,9 hPa 0,0 l/m 0 min 0 min 0 W/m 19,3 km/h (3 Bft) 95,65 %
11.02.2019 05:48 3,5 C 2,8 C 2,2 C 97 % 1008,9 hPa 0,0 l/m 0 min 0 min 0 W/m 12,9 km/h (3 Bft) 93,62 %
11.02.2019 05:50 3,4 C 2,8 C 2,2 C 97 % 1008,9 hPa 0,0 l/m 0 min 0 min 0 W/m 9,7 km/h (2 Bft) 93,62 %
11.02.2019 05:52 3,4 C 2,8 C 2,2 C 97 % 1009,0 hPa 0,0 l/m 0 min 0 min 0 W/m 22,5 km/h (4 Bft) 95,74 %
11.02.2019 05:54 3,4 C 2,8 C 2,2 C 97 % 1009,0 hPa 0,0 l/m 0 min 0 min 0 W/m 19,3 km/h (3 Bft) 93,62 %
11.02.2019 05:56 3,4 C 2,8 C 2,2 C 97 % 1009,1 hPa 0,0 l/m 0 min 0 min 0 W/m 19,3 km/h (3 Bft) 95,74 %
11.02.2019 05:58 3,4 C 2,8 C 2,2 C 97 % 1009,2 hPa 0,0 l/m 0 min 0 min 0 W/m 12,9 km/h (3 Bft) 95,65 %
11.02.2019 06:00 3,4 C 2,8 C 2,2 C 97 % 1009,2 hPa 0,0 l/m 0 min 0 min 0 W/m 19,3 km/h (3 Bft) 97,87 %
11.02.2019 06:02 3,4 C 2,8 C 2,2 C 97 % 1009,2 hPa 0,0 l/m 0 min 0 min 0 W/m 19,3 km/h (3 Bft) 95,74 %
11.02.2019 06:04 3,4 C 2,8 C 2,2 C 97 % 1009,3 hPa 0,0 l/m 0 min 0 min 0 W/m 16,1 km/h (3 Bft) 95,74 %
11.02.2019 06:08 3,4 C 2,8 C 2,2 C 97 % 1009,3 hPa 0,0 l/m 0 min 0 min 0 W/m 16,1 km/h (3 Bft) 97,87 %
11.02.2019 06:10 3,4 C 2,8 C 2,2 C 97 % 1009,4 hPa 0,0 l/m 0 min 0 min 0 W/m 22,5 km/h (4 Bft) 97,83 %
11.02.2019 06:12 3,4 C 2,8 C 2,2 C 97 % 1009,4 hPa 0,0 l/m 0 min 0 min 0 W/m 16,1 km/h (3 Bft) 97,87 %
11.02.2019 06:14 3,4 C 2,8 C 2,2 C 97 % 1009,5 hPa 0,0 l/m 0 min 0 min 0 W/m 16,1 km/h (3 Bft) 97,87 %
11.02.2019 06:16 3,4 C 2,8 C 2,2 C 97 % 1009,4 hPa 0,0 l/m 0 min 0 min 0 W/m 16,1 km/h (3 Bft) 100,00 %
11.02.2019 06:18 3,4 C 2,8 C 2,2 C 97 % 1009,5 hPa 0,0 l/m 0 min 0 min 0 W/m 19,3 km/h (3 Bft) 100,00 %
11.02.2019 06:20 3,4 C 2,8 C 2,2 C 97 % 1009,5 hPa 0,0 l/m 0 min 0 min 0 W/m 16,1 km/h (3 Bft) 97,87 %
11.02.2019 06:22 3,4 C 2,2 C 2,2 C 97 % 1009,5 hPa 0,0 l/m 0 min 0 min 0 W/m 16,1 km/h (3 Bft) 100,00 %
11.02.2019 06:24 3,3 C 2,2 C 2,2 C 97 % 1009,5 hPa 0,0 l/m 0 min 0 min 0 W/m 16,1 km/h (3 Bft) 100,00 %
11.02.2019 06:26 3,3 C 2,2 C 2,2 C 97 % 1009,5 hPa 0,0 l/m 0 min 0 min 0 W/m 19,3 km/h (3 Bft) 97,87 %
11.02.2019 06:28 3,3 C 2,2 C 2,2 C 97 % 1009,5 hPa 0,0 l/m 0 min 0 min 0 W/m 19,3 km/h (3 Bft) 97,87 %
11.02.2019 06:30 3,3 C 2,2 C 2,2 C 97 % 1009,6 hPa 0,0 l/m 0 min 0 min 0 W/m 16,1 km/h (3 Bft) 100,00 %
11.02.2019 06:32 3,3 C 2,2 C 2,2 C 97 % 1009,6 hPa 0,0 l/m 0 min 0 min 0 W/m 9,7 km/h (2 Bft) 100,00 %
11.02.2019 06:34 3,2 C 2,2 C 2,2 C 97 % 1009,6 hPa 0,0 l/m 0 min 0 min 0 W/m 16,1 km/h (3 Bft) 97,56 %
11.02.2019 06:36 3,2 C 2,2 C 2,2 C 97 % 1009,7 hPa 0,0 l/m 0 min 0 min 0 W/m 9,7 km/h (2 Bft) 97,87 %
11.02.2019 06:38 3,2 C 2,2 C 2,2 C 97 % 1009,7 hPa 0,0 l/m 0 min 0 min 0 W/m 12,9 km/h (3 Bft) 95,74 %
11.02.2019 06:40 3,2 C 2,2 C 2,2 C 97 % 1009,7 hPa 0,0 l/m 0 min 0 min 0 W/m 19,3 km/h (3 Bft) 97,83 %
11.02.2019 06:42 3,2 C 2,2 C 2,2 C 97 % 1009,8 hPa 0,0 l/m 0 min 0 min 0 W/m 9,7 km/h (2 Bft) 97,87 %
11.02.2019 06:44 3,2 C 2,2 C 2,2 C 97 % 1009,7 hPa 0,0 l/m 0 min 0 min 0 W/m 12,9 km/h (3 Bft) 97,87 %
11.02.2019 06:46 3,2 C 2,2 C 2,2 C 97 % 1009,8 hPa 0,0 l/m 0 min 0 min 0 W/m 9,7 km/h (2 Bft) 95,74 %
11.02.2019 06:48 3,2 C 2,2 C 2,2 C 97 % 1009,8 hPa 0,0 l/m 0 min 0 min 0 W/m 22,5 km/h (4 Bft) 97,87 %
11.02.2019 06:50 3,2 C 2,2 C 2,2 C 97 % 1009,9 hPa 0,0 l/m 0 min 0 min 0 W/m 9,7 km/h (2 Bft) 93,62 %
11.02.2019 06:52 3,1 C 2,2 C 1,7 C 97 % 1010,0 hPa 0,0 l/m 0 min 0 min 0 W/m 12,9 km/h (3 Bft) 97,83 %
11.02.2019 06:54 3,1 C 2,2 C 1,7 C 97 % 1010,0 hPa 0,0 l/m 0 min 0 min 0 W/m 9,7 km/h (2 Bft) 95,74 %
11.02.2019 06:56 3,1 C 2,2 C 1,7 C 97 % 1010,1 hPa 0,0 l/m 0 min 0 min 0 W/m 12,9 km/h (3 Bft) 97,87 %
11.02.2019 06:58 3,1 C 2,2 C 1,7 C 97 % 1010,2 hPa 0,0 l/m 0 min 0 min 0 W/m 9,7 km/h (2 Bft) 97,87 %
11.02.2019 07:00 3,1 C 2,2 C 1,7 C 97 % 1010,3 hPa 0,0 l/m 0 min 0 min 0 W/m 9,7 km/h (2 Bft) 97,87 %
11.02.2019 07:02 3,1 C 2,2 C 1,7 C 97 % 1010,3 hPa 0,0 l/m 0 min 0 min 0 W/m 16,1 km/h (3 Bft) 97,87 %
11.02.2019 07:04 3,1 C 2,2 C 1,7 C 97 % 1010,4 hPa 0,0 l/m 0 min 0 min 0 W/m 12,9 km/h (3 Bft) 97,83 %
11.02.2019 07:06 3,1 C 2,2 C 1,7 C 97 % 1010,6 hPa 0,0 l/m 0 min 0 min 0 W/m 12,9 km/h (3 Bft) 97,87 %
11.02.2019 07:08 3,1 C 2,2 C 2,2 C 97 % 1010,6 hPa 0,0 l/m 0 min 0 min 0 W/m 19,3 km/h (3 Bft) 95,74 %
11.02.2019 07:10 3,1 C 2,2 C 2,2 C 97 % 1010,6 hPa 0,0 l/m 0 min 0 min 0 W/m 16,1 km/h (3 Bft) 97,87 %
11.02.2019 07:12 3,1 C 2,8 C 2,2 C 97 % 1010,7 hPa 0,0 l/m 0 min 0 min 0 W/m 9,7 km/h (2 Bft) 98,00 %
11.02.2019 07:14 3,1 C 2,8 C 2,2 C 97 % 1010,7 hPa 0,0 l/m 0 min 0 min 0 W/m 12,9 km/h (3 Bft) 93,62 %
11.02.2019 07:16 3,1 C 2,8 C 2,2 C 97 % 1010,8 hPa 0,0 l/m 0 min 0 min 0 W/m 22,5 km/h (4 Bft) 97,83 %
11.02.2019 07:18 3,1 C 2,8 C 2,2 C 97 % 1010,7 hPa 0,0 l/m 0 min 0 min 0 W/m 16,1 km/h (3 Bft) 97,96 %
11.02.2019 07:20 3,1 C 2,8 C 2,2 C 97 % 1010,8 hPa 0,0 l/m 0 min 0 min 0 W/m 19,3 km/h (3 Bft) 97,87 %
11.02.2019 07:22 3,1 C 2,8 C 2,2 C 97 % 1010,8 hPa 0,0 l/m 0 min 0 min 0 W/m 12,9 km/h (3 Bft) 97,87 %
11.02.2019 07:24 3,1 C 2,8 C 2,2 C 97 % 1010,9 hPa 0,0 l/m 0 min 0 min 0 W/m 22,5 km/h (4 Bft) 97,87 %
11.02.2019 07:26 3,1 C 2,8 C 2,2 C 97 % 1011,1 hPa 0,0 l/m 0 min 0 min 0 W/m 12,9 km/h (3 Bft) 97,83 %
11.02.2019 07:28 3,1 C 2,8 C 2,2 C 97 % 1011,0 hPa 0,0 l/m 0 min 0 min 0 W/m 16,1 km/h (3 Bft) 97,87 %
11.02.2019 07:30 3,2 C 2,8 C 2,2 C 97 % 1011,1 hPa 0,0 l/m 0 min 0 min 0 W/m 16,1 km/h (3 Bft) 97,87 %
11.02.2019 07:32 3,2 C 2,8 C 2,2 C 97 % 1011,1 hPa 0,0 l/m 0 min 0 min 0 W/m 16,1 km/h (3 Bft) 95,74 %
11.02.2019 07:34 3,2 C 2,8 C 2,2 C 97 % 1011,1 hPa 0,0 l/m 0 min 0 min 0 W/m 19,3 km/h (3 Bft) 95,74 %
11.02.2019 07:36 3,2 C 2,8 C 2,2 C 97 % 1011,2 hPa 0,0 l/m 0 min 0 min 0 W/m 16,1 km/h (3 Bft) 100,00 %
11.02.2019 07:38 3,2 C 2,8 C 2,2 C 97 % 1011,2 hPa 0,0 l/m 0 min 0 min 0 W/m 19,3 km/h (3 Bft) 100,00 %
11.02.2019 07:40 3,2 C 2,8 C 2,2 C 97 % 1011,3 hPa 0,0 l/m 0 min 0 min 0 W/m 16,1 km/h (3 Bft) 100,00 %
11.02.2019 07:42 3,2 C 2,8 C 2,2 C 97 % 1011,4 hPa 0,0 l/m 0 min 0 min 0 W/m 12,9 km/h (3 Bft) 97,87 %
11.02.2019 07:44 3,2 C 2,8 C 2,2 C 97 % 1011,5 hPa 0,0 l/m 0 min 0 min 0 W/m 19,3 km/h (3 Bft) 97,87 %
11.02.2019 07:46 3,2 C 2,8 C 2,2 C 97 % 1011,5 hPa 0,0 l/m 0 min 0 min 0 W/m 16,1 km/h (3 Bft) 100,00 %
11.02.2019 07:48 3,3 C 2,8 C 2,2 C 97 % 1011,5 hPa 0,0 l/m 0 min 0 min 0 W/m 12,9 km/h (3 Bft) 100,00 %
11.02.2019 07:50 3,3 C 2,8 C 2,2 C 97 % 1011,6 hPa 0,0 l/m 0 min 0 min 0 W/m 9,7 km/h (2 Bft) 100,00 %
11.02.2019 07:52 3,3 C 2,8 C 2,2 C 97 % 1011,6 hPa 0,0 l/m 0 min 0 min 0 W/m 16,1 km/h (3 Bft) 97,87 %
11.02.2019 07:54 3,3 C 2,8 C 2,2 C 97 % 1011,7 hPa 0,0 l/m 0 min 0 min 0 W/m 16,1 km/h (3 Bft) 97,87 %
11.02.2019 07:56 3,3 C 2,8 C 2,2 C 97 % 1011,8 hPa 0,0 l/m 0 min 0 min 0 W/m 19,3 km/h (3 Bft) 97,87 %
11.02.2019 07:58 3,3 C 2,8 C 2,2 C 97 % 1011,8 hPa 0,0 l/m 0 min 0 min 0 W/m 9,7 km/h (2 Bft) 97,87 %
11.02.2019 08:00 3,3 C 2,8 C 2,2 C 97 % 1011,8 hPa 0,0 l/m 0 min 0 min 0 W/m 12,9 km/h (3 Bft) 97,87 %
11.02.2019 08:02 3,3 C 2,8 C 2,2 C 97 % 1011,9 hPa 0,0 l/m 0 min 0 min 0 W/m 16,1 km/h (3 Bft) 97,83 %
11.02.2019 08:04 3,3 C 2,8 C 2,2 C 97 % 1012,0 hPa 0,0 l/m 0 min 0 min 0 W/m 12,9 km/h (3 Bft) 95,74 %
11.02.2019 08:06 3,3 C 2,8 C 2,2 C 97 % 1012,0 hPa 0,0 l/m 0 min 0 min 0 W/m 12,9 km/h (3 Bft) 97,87 %
11.02.2019 08:08 3,3 C 2,8 C 2,2 C 97 % 1012,0 hPa 0,0 l/m 0 min 0 min 0 W/m 6,4 km/h (2 Bft) 93,62 %
11.02.2019 08:10 3,3 C 2,8 C 2,2 C 97 % 1012,0 hPa 0,0 l/m 0 min 0 min 0 W/m 9,7 km/h (2 Bft) 93,62 %
11.02.2019 08:12 3,4 C 2,8 C 2,2 C 97 % 1012,1 hPa 0,0 l/m 0 min 0 min 0 W/m 12,9 km/h (3 Bft) 95,65 %
11.02.2019 08:14 3,4 C 2,8 C 2,2 C 97 % 1012,2 hPa 0,0 l/m 0 min 0 min 0 W/m 12,9 km/h (3 Bft) 95,74 %
11.02.2019 08:16 3,4 C 2,8 C 2,2 C 97 % 1012,3 hPa 0,0 l/m 0 min 0 min 2 W/m 9,7 km/h (2 Bft) 95,74 %
11.02.2019 08:18 3,4 C 2,8 C 2,2 C 97 % 1012,3 hPa 0,0 l/m 0 min 0 min 5 W/m 12,9 km/h (3 Bft) 93,62 %
11.02.2019 08:20 3,4 C 2,8 C 2,2 C 97 % 1012,4 hPa 0,0 l/m 0 min 0 min 7 W/m 12,9 km/h (3 Bft) 95,74 %
11.02.2019 08:22 3,4 C 2,8 C 2,8 C 97 % 1012,4 hPa 0,0 l/m 0 min 0 min 9 W/m 12,9 km/h (3 Bft) 95,74 %
11.02.2019 08:24 3,4 C 2,8 C 2,8 C 97 % 1012,4 hPa 0,0 l/m 0 min 0 min 9 W/m 12,9 km/h (3 Bft) 93,48 %
11.02.2019 08:26 3,4 C 2,8 C 2,8 C 97 % 1012,5 hPa 0,0 l/m 0 min 0 min 9 W/m 25,7 km/h (4 Bft) 95,74 %
11.02.2019 08:28 3,4 C 2,8 C 2,8 C 97 % 1012,4 hPa 0,0 l/m 0 min 0 min 10 W/m 16,1 km/h (3 Bft) 93,62 %
11.02.2019 08:30 3,4 C 2,8 C 2,8 C 97 % 1012,5 hPa 0,0 l/m 0 min 0 min 12 W/m 12,9 km/h (3 Bft) 95,74 %
11.02.2019 08:32 3,5 C 2,8 C 2,8 C 97 % 1012,5 hPa 0,0 l/m 0 min 0 min 12 W/m 9,7 km/h (2 Bft) 95,74 %
11.02.2019 08:34 3,5 C 2,8 C 2,2 C 97 % 1012,5 hPa 0,0 l/m 0 min 0 min 14 W/m 16,1 km/h (3 Bft) 95,74 %
11.02.2019 08:36 3,4 C 2,8 C 2,2 C 97 % 1012,6 hPa 0,0 l/m 0 min 0 min 19 W/m 16,1 km/h (3 Bft) 95,65 %
11.02.2019 08:38 3,4 C 2,8 C 2,2 C 97 % 1012,7 hPa 0,0 l/m 0 min 0 min 27 W/m 12,9 km/h (3 Bft) 95,74 %
11.02.2019 08:40 3,4 C 2,8 C 2,2 C 96 % 1012,7 hPa 0,0 l/m 0 min 0 min 24 W/m 12,9 km/h (3 Bft) 95,74 %
11.02.2019 08:42 3,4 C 2,8 C 2,2 C 96 % 1012,6 hPa 0,0 l/m 0 min 0 min 20 W/m 9,7 km/h (2 Bft) 95,74 %
11.02.2019 08:44 3,4 C 2,8 C 2,2 C 96 % 1012,7 hPa 0,0 l/m 0 min 0 min 23 W/m 9,7 km/h (2 Bft) 97,87 %
11.02.2019 08:46 3,4 C 2,8 C 2,2 C 96 % 1012,7 hPa 0,0 l/m 0 min 0 min 24 W/m 6,4 km/h (2 Bft) 97,87 %
11.02.2019 08:48 3,4 C 2,8 C 2,2 C 96 % 1012,8 hPa 0,0 l/m 0 min 0 min 26 W/m 6,4 km/h (2 Bft) 97,83 %
11.02.2019 08:50 3,4 C 2,8 C 2,2 C 96 % 1012,8 hPa 0,0 l/m 0 min 0 min 38 W/m 9,7 km/h (2 Bft) 100,00 %
11.02.2019 08:52 3,4 C 2,8 C 2,8 C 96 % 1012,8 hPa 0,0 l/m 0 min 0 min 60 W/m 9,7 km/h (2 Bft) 95,74 %
11.02.2019 08:54 3,4 C 3,3 C 2,8 C 96 % 1012,8 hPa 0,0 l/m 0 min 0 min 44 W/m 9,7 km/h (2 Bft) 100,00 %
11.02.2019 08:56 3,4 C 3,3 C 2,8 C 96 % 1012,9 hPa 0,0 l/m 0 min 0 min 38 W/m 3,2 km/h (1 Bft) 100,00 %
11.02.2019 08:58 3,4 C 3,3 C 2,8 C 96 % 1012,9 hPa 0,0 l/m 0 min 0 min 44 W/m 12,9 km/h (3 Bft) 100,00 %
11.02.2019 09:00 3,4 C 3,3 C 2,8 C 96 % 1013,0 hPa 0,0 l/m 0 min 0 min 41 W/m 9,7 km/h (2 Bft) 97,83 %
11.02.2019 09:02 3,4 C 3,3 C 2,8 C 96 % 1013,0 hPa 0,0 l/m 0 min 0 min 42 W/m 9,7 km/h (2 Bft) 100,00 %
11.02.2019 09:04 3,5 C 3,3 C 2,8 C 96 % 1013,0 hPa 0,0 l/m 0 min 0 min 42 W/m 12,9 km/h (3 Bft) 100,00 %
11.02.2019 09:06 3,4 C 2,8 C 2,8 C 96 % 1013,1 hPa 0,0 l/m 0 min 0 min 32 W/m 12,9 km/h (3 Bft) 100,00 %
11.02.2019 09:08 3,5 C 2,8 C 2,8 C 96 % 1013,1 hPa 0,0 l/m 0 min 0 min 28 W/m 25,7 km/h (4 Bft) 100,00 %
11.02.2019 09:10 3,4 C 2,8 C 2,2 C 96 % 1013,1 hPa 0,0 l/m 0 min 0 min 33 W/m 6,4 km/h (2 Bft) 100,00 %
11.02.2019 09:12 3,5 C 3,3 C 2,8 C 96 % 1013,1 hPa 0,0 l/m 0 min 0 min 62 W/m 9,7 km/h (2 Bft) 100,00 %
11.02.2019 09:14 3,4 C 3,3 C 2,8 C 96 % 1013,4 hPa 0,0 l/m 0 min 0 min 70 W/m 12,9 km/h (3 Bft) 100,00 %
11.02.2019 09:16 3,4 C 3,3 C 2,8 C 96 % 1013,4 hPa 0,0 l/m 0 min 0 min 79 W/m 12,9 km/h (3 Bft) 100,00 %
11.02.2019 09:18 3,5 C 3,3 C 2,8 C 96 % 1013,4 hPa 0,0 l/m 2 min 0 min 93 W/m 16,1 km/h (3 Bft) 100,00 %
11.02.2019 09:20 3,5 C 3,3 C 2,8 C 96 % 1013,4 hPa 0,0 l/m 0 min 0 min 68 W/m 16,1 km/h (3 Bft) 100,00 %
11.02.2019 09:22 3,6 C 3,3 C 2,8 C 96 % 1013,4 hPa 0,0 l/m 0 min 0 min 56 W/m 12,9 km/h (3 Bft) 97,83 %
11.02.2019 09:24 3,6 C 3,3 C 2,8 C 96 % 1013,4 hPa 0,0 l/m 0 min 0 min 52 W/m 12,9 km/h (3 Bft) 93,62 %
11.02.2019 09:26 3,6 C 3,3 C 2,8 C 96 % 1013,5 hPa 0,0 l/m 0 min 0 min 52 W/m 6,4 km/h (2 Bft) 100,00 %
11.02.2019 09:28 3,6 C 3,3 C 2,8 C 96 % 1013,6 hPa 0,0 l/m 0 min 0 min 45 W/m 16,1 km/h (3 Bft) 91,49 %
11.02.2019 09:30 3,6 C 3,3 C 2,8 C 96 % 1013,6 hPa 0,0 l/m 0 min 0 min 63 W/m 19,3 km/h (3 Bft) 100,00 %
11.02.2019 09:32 3,6 C 3,3 C 2,8 C 96 % 1013,6 hPa 0,0 l/m 0 min 0 min 54 W/m 9,7 km/h (2 Bft) 100,00 %
11.02.2019 09:34 3,6 C 3,9 C 2,8 C 96 % 1013,6 hPa 0,0 l/m 0 min 0 min 85 W/m 16,1 km/h (3 Bft) 97,83 %
11.02.2019 09:36 3,6 C 3,3 C 2,8 C 96 % 1013,7 hPa 0,0 l/m 0 min 0 min 79 W/m 12,9 km/h (3 Bft) 100,00 %
11.02.2019 09:38 3,7 C 3,3 C 2,8 C 96 % 1013,7 hPa 0,0 l/m 0 min 0 min 68 W/m 9,7 km/h (2 Bft) 100,00 %
11.02.2019 09:40 3,7 C 3,3 C 2,8 C 96 % 1013,7 hPa 0,0 l/m 0 min 0 min 90 W/m 12,9 km/h (3 Bft) 100,00 %
11.02.2019 09:42 3,7 C 3,9 C 3,3 C 96 % 1013,8 hPa 0,0 l/m 0 min 0 min 107 W/m 9,7 km/h (2 Bft) 100,00 %
11.02.2019 09:44 3,7 C 3,9 C 3,3 C 96 % 1013,8 hPa 0,0 l/m 0 min 0 min 96 W/m 16,1 km/h (3 Bft) 100,00 %
11.02.2019 09:46 3,7 C 3,9 C 2,8 C 96 % 1013,9 hPa 0,0 l/m 0 min 0 min 60 W/m 9,7 km/h (2 Bft) 97,83 %
11.02.2019 09:48 3,7 C 5,0 C 3,3 C 96 % 1013,9 hPa 0,0 l/m 2 min 0 min 124 W/m 12,9 km/h (3 Bft) 100,00 %
11.02.2019 09:50 3,8 C 5,6 C 3,3 C 96 % 1013,9 hPa 0,0 l/m 2 min 0 min 176 W/m 16,1 km/h (3 Bft) 100,00 %
11.02.2019 09:52 3,8 C 5,6 C 3,3 C 96 % 1014,2 hPa 0,0 l/m 2 min 0 min 189 W/m 16,1 km/h (3 Bft) 100,00 %
11.02.2019 09:54 3,8 C 5,6 C 3,3 C 96 % 1014,1 hPa 0,0 l/m 2 min 0 min 206 W/m 9,7 km/h (2 Bft) 97,87 %
11.02.2019 09:56 3,9 C 6,1 C 3,3 C 96 % 1014,2 hPa 0,0 l/m 2 min 0 min 175 W/m 9,7 km/h (2 Bft) 97,87 %
11.02.2019 09:58 3,9 C 6,7 C 3,3 C 96 % 1014,1 hPa 0,0 l/m 2 min 0 min 236 W/m 9,7 km/h (2 Bft) 93,48 %
11.02.2019 10:00 4,0 C 7,2 C 3,9 C 96 % 1014,2 hPa 0,0 l/m 2 min 0 min 266 W/m 16,1 km/h (3 Bft) 93,62 %
11.02.2019 10:02 4,1 C 7,2 C 3,9 C 96 % 1014,2 hPa 0,0 l/m 2 min 0 min 262 W/m 16,1 km/h (3 Bft) 95,74 %
11.02.2019 10:04 4,2 C 5,6 C 3,9 C 96 % 1014,3 hPa 0,0 l/m 0 min 0 min 131 W/m 9,7 km/h (2 Bft) 97,87 %
11.02.2019 10:06 4,2 C 5,6 C 3,9 C 96 % 1014,4 hPa 0,0 l/m 0 min 0 min 108 W/m 12,9 km/h (3 Bft) 97,87 %
11.02.2019 10:08 4,3 C 5,6 C 3,3 C 96 % 1014,4 hPa 0,0 l/m 0 min 0 min 114 W/m 9,7 km/h (2 Bft) 97,83 %
11.02.2019 10:10 4,3 C 5,6 C 3,3 C 96 % 1014,4 hPa 0,0 l/m 2 min 0 min 151 W/m 12,9 km/h (3 Bft) 95,74 %
11.02.2019 10:12 4,3 C 6,1 C 3,9 C 96 % 1014,4 hPa 0,0 l/m 2 min 0 min 190 W/m 19,3 km/h (3 Bft) 97,87 %
11.02.2019 10:14 4,4 C 5,6 C 3,9 C 96 % 1014,4 hPa 0,0 l/m 0 min 0 min 138 W/m 16,1 km/h (3 Bft) 97,87 %
11.02.2019 10:16 4,4 C 7,2 C 4,4 C 96 % 1014,5 hPa 0,0 l/m 2 min 0 min 200 W/m 12,9 km/h (3 Bft) 95,74 %
11.02.2019 10:18 4,5 C 7,8 C 5,0 C 96 % 1014,5 hPa 0,0 l/m 2 min 0 min 282 W/m 9,7 km/h (2 Bft) 97,87 %
11.02.2019 10:20 4,6 C 8,3 C 4,4 C 96 % 1014,6 hPa 0,0 l/m 2 min 0 min 298 W/m 12,9 km/h (3 Bft) 97,83 %
11.02.2019 10:22 4,7 C 7,8 C 4,4 C 96 % 1014,6 hPa 0,0 l/m 2 min 0 min 225 W/m 12,9 km/h (3 Bft) 95,74 %
11.02.2019 10:24 4,7 C 7,8 C 4,4 C 96 % 1014,6 hPa 0,0 l/m 2 min 0 min 271 W/m 16,1 km/h (3 Bft) 95,74 %
11.02.2019 10:26 4,8 C 8,3 C 4,4 C 96 % 1014,6 hPa 0,0 l/m 2 min 0 min 325 W/m 16,1 km/h (3 Bft) 97,87 %
11.02.2019 10:28 4,9 C 8,9 C 5,0 C 96 % 1014,6 hPa 0,0 l/m 2 min 0 min 383 W/m 16,1 km/h (3 Bft) 97,87 %
11.02.2019 10:30 4,9 C 7,8 C 4,4 C 95 % 1014,6 hPa 0,0 l/m 2 min 0 min 224 W/m 12,9 km/h (3 Bft) 93,62 %
11.02.2019 10:32 5,0 C 6,7 C 4,4 C 95 % 1014,7 hPa 0,0 l/m 0 min 0 min 125 W/m 19,3 km/h (3 Bft) 95,65 %
11.02.2019 10:34 5,0 C 7,8 C 4,4 C 95 % 1014,7 hPa 0,0 l/m 0 min 0 min 74 W/m 16,1 km/h (3 Bft) 95,74 %
11.02.2019 10:36 5,1 C 9,4 C 5,0 C 95 % 1014,8 hPa 0,0 l/m 2 min 0 min 344 W/m 16,1 km/h (3 Bft) 95,74 %
11.02.2019 10:38 5,2 C 10,0 C 5,0 C 95 % 1014,9 hPa 0,0 l/m 2 min 0 min 399 W/m 29,0 km/h (5 Bft) 97,87 %
11.02.2019 10:40 5,2 C 7,2 C 4,4 C 95 % 1014,9 hPa 0,0 l/m 2 min 0 min 186 W/m 19,3 km/h (3 Bft) 97,87 %
11.02.2019 10:42 5,2 C 6,1 C 4,4 C 94 % 1014,9 hPa 0,0 l/m 0 min 0 min 136 W/m 22,5 km/h (4 Bft) 95,74 %
11.02.2019 10:44 5,2 C 7,2 C 5,0 C 94 % 1015,0 hPa 0,0 l/m 0 min 0 min 159 W/m 22,5 km/h (4 Bft) 97,83 %
11.02.2019 10:46 5,3 C 8,3 C 5,0 C 94 % 1015,0 hPa 0,0 l/m 2 min 0 min 413 W/m 16,1 km/h (3 Bft) 93,62 %
11.02.2019 10:48 5,3 C 7,2 C 5,0 C 94 % 1015,0 hPa 0,0 l/m 2 min 0 min 204 W/m 16,1 km/h (3 Bft) 97,87 %
11.02.2019 10:50 5,4 C 6,7 C 5,0 C 93 % 1015,1 hPa 0,0 l/m 0 min 0 min 103 W/m 19,3 km/h (3 Bft) 97,87 %
11.02.2019 10:52 5,4 C 5,6 C 4,4 C 93 % 1015,2 hPa 0,0 l/m 0 min 0 min 74 W/m 9,7 km/h (2 Bft) 97,87 %
11.02.2019 10:54 5,3 C 5,6 C 4,4 C 93 % 1015,3 hPa 0,0 l/m 0 min 0 min 81 W/m 19,3 km/h (3 Bft) 97,87 %
11.02.2019 10:56 5,3 C 5,6 C 4,4 C 93 % 1015,3 hPa 0,0 l/m 0 min 0 min 107 W/m 16,1 km/h (3 Bft) 97,83 %
11.02.2019 10:58 5,3 C 5,6 C 4,4 C 93 % 1015,3 hPa 0,0 l/m 0 min 0 min 106 W/m 16,1 km/h (3 Bft) 97,87 %
11.02.2019 11:00 5,3 C 5,6 C 4,4 C 93 % 1015,4 hPa 0,0 l/m 0 min 0 min 127 W/m 16,1 km/h (3 Bft) 95,74 %
11.02.2019 11:02 5,3 C 6,7 C 5,0 C 93 % 1015,4 hPa 0,0 l/m 0 min 0 min 161 W/m 19,3 km/h (3 Bft) 97,87 %
11.02.2019 11:04 5,4 C 7,8 C 5,0 C 93 % 1015,4 hPa 0,0 l/m 2 min 0 min 204 W/m 22,5 km/h (4 Bft) 97,87 %
11.02.2019 11:06 5,4 C 7,8 C 5,0 C 92 % 1015,4 hPa 0,0 l/m 2 min 0 min 221 W/m 22,5 km/h (4 Bft) 95,74 %
11.02.2019 11:08 5,5 C 7,2 C 5,0 C 93 % 1015,5 hPa 0,0 l/m 0 min 0 min 165 W/m 22,5 km/h (4 Bft) 97,83 %
11.02.2019 11:10 5,5 C 6,7 C 5,6 C 92 % 1015,5 hPa 0,0 l/m 2 min 0 min 198 W/m 22,5 km/h (4 Bft) 97,87 %
11.02.2019 11:12 5,5 C 6,7 C 5,6 C 92 % 1015,6 hPa 0,0 l/m 2 min 0 min 217 W/m 32,2 km/h (5 Bft) 97,87 %
11.02.2019 11:14 5,6 C 6,7 C 5,6 C 92 % 1015,7 hPa 0,0 l/m 2 min 0 min 212 W/m 25,7 km/h (4 Bft) 100,00 %
11.02.2019 11:16 5,6 C 6,7 C 5,6 C 92 % 1015,6 hPa 0,0 l/m 2 min 0 min 186 W/m 25,7 km/h (4 Bft) 93,62 %
11.02.2019 11:18 5,6 C 6,7 C 5,6 C 92 % 1015,7 hPa 0,0 l/m 2 min 0 min 213 W/m 19,3 km/h (3 Bft) 97,87 %
11.02.2019 11:20 5,7 C 6,7 C 5,6 C 92 % 1015,7 hPa 0,0 l/m 2 min 0 min 211 W/m 22,5 km/h (4 Bft) 97,83 %
11.02.2019 11:22 5,7 C 7,2 C 5,6 C 92 % 1015,7 hPa 0,0 l/m 2 min 0 min 215 W/m 19,3 km/h (3 Bft) 100,00 %
11.02.2019 11:24 5,7 C 7,2 C 5,6 C 92 % 1015,7 hPa 0,0 l/m 2 min 0 min 211 W/m 25,7 km/h (4 Bft) 100,00 %
11.02.2019 11:26 5,8 C 7,2 C 5,6 C 92 % 1015,7 hPa 0,0 l/m 2 min 0 min 214 W/m 19,3 km/h (3 Bft) 97,87 %
11.02.2019 11:28 5,8 C 7,2 C 5,6 C 91 % 1015,8 hPa 0,0 l/m 2 min 0 min 222 W/m 22,5 km/h (4 Bft) 97,87 %
11.02.2019 11:30 5,8 C 6,7 C 5,6 C 91 % 1015,7 hPa 0,0 l/m 2 min 0 min 207 W/m 25,7 km/h (4 Bft) 100,00 %
11.02.2019 11:32 5,9 C 7,2 C 6,1 C 91 % 1015,8 hPa 0,0 l/m 2 min 0 min 214 W/m 25,7 km/h (4 Bft) 100,00 %
11.02.2019 11:34 5,9 C 7,2 C 6,1 C 91 % 1015,7 hPa 0,0 l/m 2 min 0 min 220 W/m 19,3 km/h (3 Bft) 97,87 %
11.02.2019 11:36 6,0 C 7,8 C 6,1 C 91 % 1015,8 hPa 0,0 l/m 2 min 0 min 200 W/m 12,9 km/h (3 Bft) 95,74 %
11.02.2019 11:38 6,0 C 7,2 C 6,1 C 91 % 1015,8 hPa 0,0 l/m 0 min 0 min 151 W/m 19,3 km/h (3 Bft) 95,74 %
11.02.2019 11:40 6,1 C 6,7 C 5,6 C 91 % 1015,9 hPa 0,0 l/m 0 min 0 min 130 W/m 29,0 km/h (5 Bft) 97,87 %
11.02.2019 11:42 6,1 C 6,7 C 5,6 C 91 % 1015,9 hPa 0,0 l/m 0 min 0 min 162 W/m 25,7 km/h (4 Bft) 97,96 %
11.02.2019 11:44 6,1 C 7,2 C 6,1 C 90 % 1015,9 hPa 0,0 l/m 2 min 0 min 214 W/m 19,3 km/h (3 Bft) 97,87 %
11.02.2019 11:46 6,1 C 8,9 C 6,1 C 90 % 1015,9 hPa 0,0 l/m 2 min 0 min 385 W/m 22,5 km/h (4 Bft) 97,87 %
11.02.2019 11:48 6,2 C 8,3 C 6,1 C 90 % 1015,9 hPa 0,0 l/m 2 min 0 min 325 W/m 35,4 km/h (5 Bft) 97,87 %
11.02.2019 11:50 6,2 C 7,2 C 6,1 C 90 % 1015,9 hPa 0,0 l/m 0 min 0 min 165 W/m 22,5 km/h (4 Bft) 97,87 %
11.02.2019 11:52 6,3 C 7,2 C 6,1 C 89 % 1015,9 hPa 0,0 l/m 0 min 0 min 172 W/m 22,5 km/h (4 Bft) 97,87 %
11.02.2019 11:54 6,3 C 7,2 C 6,1 C 89 % 1016,0 hPa 0,0 l/m 0 min 0 min 162 W/m 22,5 km/h (4 Bft) 97,83 %
11.02.2019 11:56 6,3 C 6,7 C 5,6 C 89 % 1016,1 hPa 0,0 l/m 0 min 0 min 167 W/m 22,5 km/h (4 Bft) 95,74 %
11.02.2019 11:58 6,3 C 7,8 C 6,1 C 89 % 1016,1 hPa 0,0 l/m 2 min 0 min 244 W/m 22,5 km/h (4 Bft) 95,74 %
11.02.2019 12:00 6,4 C 9,4 C 6,7 C 89 % 1016,1 hPa 0,0 l/m 2 min 0 min 276 W/m 19,3 km/h (3 Bft) 97,87 %
11.02.2019 12:02 6,5 C 9,4 C 7,2 C 89 % 1016,2 hPa 0,0 l/m 2 min 0 min 290 W/m 29,0 km/h (5 Bft) 97,87 %
11.02.2019 12:04 6,6 C 8,9 C 6,7 C 89 % 1016,2 hPa 0,0 l/m 2 min 0 min 231 W/m 19,3 km/h (3 Bft) 97,87 %
11.02.2019 12:07 6,7 C 7,8 C 6,1 C 89 % 1016,2 hPa 0,0 l/m 0 min 3 min 137 W/m 22,5 km/h (4 Bft) 97,14 %
11.02.2019 12:08 6,7 C 7,2 C 6,1 C 88 % 1016,2 hPa 0,0 l/m 0 min 1 min 183 W/m 16,1 km/h (3 Bft) 95,65 %
11.02.2019 12:10 6,7 C 7,2 C 6,1 C 88 % 1016,3 hPa 0,0 l/m 0 min 0 min 201 W/m 19,3 km/h (3 Bft) 97,14 %
11.02.2019 12:12 6,7 C 7,2 C 6,1 C 88 % 1016,2 hPa 0,0 l/m 0 min 0 min 134 W/m 22,5 km/h (4 Bft) 97,87 %
11.02.2019 12:14 6,7 C 6,7 C 5,6 C 88 % 1016,2 hPa 0,0 l/m 0 min 2 min 109 W/m 19,3 km/h (3 Bft) 97,87 %
11.02.2019 12:16 6,7 C 6,7 C 5,6 C 88 % 1016,3 hPa 0,0 l/m 0 min 2 min 129 W/m 19,3 km/h (3 Bft) 95,74 %
11.02.2019 12:18 6,7 C 7,2 C 6,1 C 88 % 1016,3 hPa 0,0 l/m 2 min 2 min 210 W/m 12,9 km/h (3 Bft) 97,87 %
11.02.2019 12:20 6,7 C 7,2 C 6,1 C 88 % 1016,4 hPa 0,0 l/m 2 min 2 min 225 W/m 25,7 km/h (4 Bft) 97,83 %
11.02.2019 12:22 6,7 C 7,2 C 6,1 C 88 % 1016,4 hPa 0,0 l/m 0 min 2 min 195 W/m 22,5 km/h (4 Bft) 97,87 %
11.02.2019 12:24 6,7 C 7,2 C 6,1 C 88 % 1016,4 hPa 0,0 l/m 0 min 2 min 141 W/m 25,7 km/h (4 Bft) 97,87 %
11.02.2019 12:26 6,7 C 6,7 C 6,1 C 88 % 1016,4 hPa 0,0 l/m 0 min 0 min 87 W/m 19,3 km/h (3 Bft) 97,87 %
11.02.2019 12:28 6,7 C 6,7 C 5,6 C 88 % 1016,4 hPa 0,0 l/m 0 min 2 min 72 W/m 16,1 km/h (3 Bft) 95,74 %
11.02.2019 12:30 6,7 C 6,1 C 5,6 C 88 % 1016,5 hPa 0,0 l/m 0 min 0 min 67 W/m 22,5 km/h (4 Bft) 95,74 %
11.02.2019 12:32 6,7 C 6,1 C 5,6 C 88 % 1016,5 hPa 0,0 l/m 0 min 2 min 64 W/m 12,9 km/h (3 Bft) 95,65 %
11.02.2019 12:34 6,7 C 5,6 C 5,0 C 88 % 1016,5 hPa 0,0 l/m 0 min 2 min 66 W/m 16,1 km/h (3 Bft) 93,62 %
11.02.2019 12:36 6,7 C 5,6 C 5,0 C 88 % 1016,6 hPa 0,0 l/m 0 min 2 min 76 W/m 16,1 km/h (3 Bft) 96,61 %
11.02.2019 12:38 6,6 C 5,6 C 4,4 C 88 % 1016,7 hPa 0,0 l/m 0 min 2 min 56 W/m 19,3 km/h (3 Bft) 95,74 %
11.02.2019 12:40 6,6 C 5,0 C 4,4 C 89 % 1016,8 hPa 0,0 l/m 0 min 2 min 35 W/m 16,1 km/h (3 Bft) 97,83 %
11.02.2019 12:42 6,5 C 5,0 C 4,4 C 89 % 1016,7 hPa 0,0 l/m 0 min 2 min 30 W/m 16,1 km/h (3 Bft) 94,44 %
11.02.2019 12:44 6,4 C 5,0 C 4,4 C 89 % 1016,8 hPa 0,0 l/m 0 min 2 min 38 W/m 22,5 km/h (4 Bft) 93,48 %
11.02.2019 12:46 6,4 C 5,0 C 4,4 C 89 % 1016,7 hPa 0,0 l/m 0 min 2 min 48 W/m 19,3 km/h (3 Bft) 93,62 %
11.02.2019 12:48 6,3 C 5,0 C 4,4 C 89 % 1016,8 hPa 0,0 l/m 0 min 2 min 47 W/m 25,7 km/h (4 Bft) 91,49 %
11.02.2019 12:50 6,3 C 5,0 C 4,4 C 89 % 1016,8 hPa 0,0 l/m 0 min 2 min 41 W/m 19,3 km/h (3 Bft) 93,62 %
11.02.2019 12:52 6,2 C 5,0 C 4,4 C 89 % 1016,9 hPa 0,0 l/m 0 min 2 min 62 W/m 16,1 km/h (3 Bft) 93,62 %
11.02.2019 12:54 6,2 C 5,0 C 4,4 C 89 % 1017,1 hPa 0,0 l/m 0 min 2 min 57 W/m 12,9 km/h (3 Bft) 93,62 %
11.02.2019 12:56 6,1 C 5,0 C 4,4 C 90 % 1017,1 hPa 0,2 l/m 0 min 2 min 36 W/m 19,3 km/h (3 Bft) 96,55 %
11.02.2019 12:58 6,1 C 5,0 C 3,9 C 90 % 1017,2 hPa 0,0 l/m 0 min 2 min 40 W/m 19,3 km/h (3 Bft) 94,29 %
11.02.2019 13:00 6,1 C 5,0 C 4,4 C 90 % 1017,3 hPa 0,0 l/m 0 min 2 min 60 W/m 19,3 km/h (3 Bft) 94,92 %
11.02.2019 13:02 6,1 C 5,0 C 4,4 C 90 % 1017,2 hPa 0,0 l/m 0 min 2 min 73 W/m 22,5 km/h (4 Bft) 97,14 %
11.02.2019 13:04 6,0 C 5,0 C 4,4 C 91 % 1017,2 hPa 0,0 l/m 0 min 2 min 82 W/m 12,9 km/h (3 Bft) 89,36 %
11.02.2019 13:06 6,0 C 5,0 C 4,4 C 91 % 1017,1 hPa 0,0 l/m 0 min 2 min 102 W/m 16,1 km/h (3 Bft) 94,83 %
11.02.2019 13:08 6,0 C 5,0 C 4,4 C 91 % 1017,2 hPa 0,0 l/m 0 min 2 min 103 W/m 12,9 km/h (3 Bft) 93,62 %
11.02.2019 13:10 6,0 C 5,6 C 4,4 C 91 % 1017,2 hPa 0,0 l/m 0 min 2 min 125 W/m 12,9 km/h (3 Bft) 97,14 %
11.02.2019 13:12 6,0 C 5,6 C 5,0 C 92 % 1017,4 hPa 0,0 l/m 0 min 2 min 164 W/m 12,9 km/h (3 Bft) 94,92 %
11.02.2019 13:14 6,1 C 6,1 C 5,0 C 92 % 1017,4 hPa 0,0 l/m 2 min 2 min 231 W/m 16,1 km/h (3 Bft) 97,14 %
11.02.2019 13:16 6,1 C 6,1 C 5,0 C 92 % 1017,4 hPa 0,0 l/m 2 min 2 min 211 W/m 19,3 km/h (3 Bft) 95,74 %
11.02.2019 13:18 6,2 C 6,1 C 5,0 C 92 % 1017,4 hPa 0,0 l/m 0 min 2 min 171 W/m 16,1 km/h (3 Bft) 93,48 %
11.02.2019 13:20 6,2 C 6,7 C 5,6 C 92 % 1017,4 hPa 0,0 l/m 2 min 2 min 231 W/m 25,7 km/h (4 Bft) 93,62 %
11.02.2019 13:22 6,3 C 7,2 C 5,6 C 93 % 1017,4 hPa 0,0 l/m 2 min 2 min 243 W/m 22,5 km/h (4 Bft) 93,62 %
11.02.2019 13:24 6,4 C 9,4 C 6,1 C 93 % 1017,5 hPa 0,0 l/m 2 min 0 min 372 W/m 19,3 km/h (3 Bft) 97,87 %
11.02.2019 13:26 6,5 C 8,9 C 6,1 C 93 % 1017,4 hPa 0,0 l/m 2 min 0 min 306 W/m 16,1 km/h (3 Bft) 100,00 %
11.02.2019 13:28 6,6 C 9,4 C 6,7 C 93 % 1017,5 hPa 0,0 l/m 2 min 0 min 338 W/m 19,3 km/h (3 Bft) 100,00 %
11.02.2019 13:30 6,7 C 9,4 C 6,1 C 93 % 1017,6 hPa 0,0 l/m 2 min 0 min 430 W/m 25,7 km/h (4 Bft) 98,33 %
11.02.2019 13:32 6,8 C 9,4 C 6,1 C 93 % 1017,7 hPa 0,0 l/m 2 min 0 min 286 W/m 22,5 km/h (4 Bft) 97,87 %
11.02.2019 13:34 6,8 C 8,3 C 5,6 C 93 % 1017,7 hPa 0,0 l/m 0 min 0 min 156 W/m 16,1 km/h (3 Bft) 100,00 %
11.02.2019 13:36 6,8 C 7,8 C 5,6 C 93 % 1017,8 hPa 0,0 l/m 0 min 0 min 163 W/m 22,5 km/h (4 Bft) 100,00 %
11.02.2019 13:38 6,9 C 7,2 C 5,6 C 92 % 1017,8 hPa 0,0 l/m 0 min 0 min 194 W/m 19,3 km/h (3 Bft) 97,83 %
11.02.2019 13:40 6,9 C 7,2 C 5,6 C 92 % 1017,9 hPa 0,0 l/m 0 min 2 min 137 W/m 25,7 km/h (4 Bft) 100,00 %
11.02.2019 13:42 6,9 C 6,7 C 5,0 C 92 % 1017,9 hPa 0,2 l/m 0 min 2 min 79 W/m 25,7 km/h (4 Bft) 100,00 %
11.02.2019 13:44 6,9 C 6,1 C 5,0 C 92 % 1018,0 hPa 0,0 l/m 0 min 2 min 68 W/m 16,1 km/h (3 Bft) 97,92 %
11.02.2019 13:46 6,8 C 5,6 C 5,0 C 92 % 1018,0 hPa 0,0 l/m 0 min 2 min 55 W/m 9,7 km/h (2 Bft) 100,00 %
11.02.2019 13:48 6,8 C 5,6 C 5,0 C 91 % 1018,2 hPa 0,0 l/m 0 min 2 min 35 W/m 25,7 km/h (4 Bft) 97,87 %
11.02.2019 13:50 6,8 C 5,6 C 5,0 C 91 % 1018,5 hPa 0,0 l/m 0 min 0 min 22 W/m 25,7 km/h (4 Bft) 97,87 %
11.02.2019 13:52 6,7 C 5,0 C 4,4 C 92 % 1018,6 hPa 0,0 l/m 0 min 0 min 19 W/m 38,6 km/h (5 Bft) 100,00 %
11.02.2019 13:54 6,6 C 4,4 C 3,9 C 91 % 1018,5 hPa 0,2 l/m 0 min 2 min 23 W/m 22,5 km/h (4 Bft) 97,87 %
11.02.2019 13:56 6,4 C 3,9 C 3,3 C 91 % 1018,5 hPa 0,2 l/m 0 min 2 min 34 W/m 19,3 km/h (3 Bft) 98,28 %
11.02.2019 13:58 6,3 C 3,9 C 3,9 C 90 % 1018,4 hPa 0,2 l/m 0 min 2 min 60 W/m 16,1 km/h (3 Bft) 100,00 %
11.02.2019 14:00 6,1 C 4,4 C 3,9 C 90 % 1018,4 hPa 0,0 l/m 0 min 2 min 90 W/m 25,7 km/h (4 Bft) 100,00 %
11.02.2019 14:02 6,0 C 4,4 C 3,9 C 90 % 1018,4 hPa 0,0 l/m 0 min 2 min 120 W/m 12,9 km/h (3 Bft) 100,00 %
11.02.2019 14:04 6,0 C 5,6 C 4,4 C 91 % 1018,4 hPa 0,0 l/m 0 min 0 min 191 W/m 9,7 km/h (2 Bft) 100,00 %
11.02.2019 14:06 6,0 C 6,1 C 5,0 C 91 % 1018,4 hPa 0,0 l/m 2 min 0 min 265 W/m 12,9 km/h (3 Bft) 100,00 %
11.02.2019 14:08 6,1 C 6,7 C 5,0 C 92 % 1018,4 hPa 0,0 l/m 2 min 0 min 273 W/m 12,9 km/h (3 Bft) 95,65 %
11.02.2019 14:10 6,1 C 8,9 C 5,6 C 92 % 1018,5 hPa 0,0 l/m 2 min 0 min 334 W/m 9,7 km/h (2 Bft) 97,87 %
11.02.2019 14:12 6,3 C 9,4 C 6,1 C 93 % 1018,5 hPa 0,0 l/m 2 min 0 min 369 W/m 16,1 km/h (3 Bft) 95,74 %
11.02.2019 14:14 6,4 C 8,9 C 6,1 C 93 % 1018,5 hPa 0,0 l/m 2 min 0 min 250 W/m 16,1 km/h (3 Bft) 97,87 %
11.02.2019 14:16 6,4 C 8,9 C 6,1 C 93 % 1018,5 hPa 0,0 l/m 2 min 0 min 251 W/m 25,7 km/h (4 Bft) 100,00 %
11.02.2019 14:18 6,6 C 9,4 C 6,1 C 93 % 1018,6 hPa 0,0 l/m 2 min 0 min 275 W/m 16,1 km/h (3 Bft) 97,87 %
11.02.2019 14:20 6,6 C 8,3 C 6,1 C 93 % 1018,6 hPa 0,0 l/m 2 min 0 min 218 W/m 16,1 km/h (3 Bft) 97,83 %
11.02.2019 14:22 6,7 C 7,8 C 6,1 C 93 % 1018,6 hPa 0,0 l/m 2 min 0 min 221 W/m 22,5 km/h (4 Bft) 100,00 %
11.02.2019 14:24 6,7 C 7,2 C 6,1 C 93 % 1018,6 hPa 0,0 l/m 0 min 0 min 157 W/m 22,5 km/h (4 Bft) 100,00 %
11.02.2019 14:26 6,7 C 7,2 C 5,6 C 93 % 1018,7 hPa 0,0 l/m 0 min 0 min 131 W/m 19,3 km/h (3 Bft) 100,00 %
11.02.2019 14:28 6,8 C 7,2 C 5,6 C 93 % 1018,7 hPa 0,0 l/m 0 min 0 min 118 W/m 19,3 km/h (3 Bft) 100,00 %
11.02.2019 14:30 6,8 C 6,7 C 5,6 C 93 % 1018,7 hPa 0,0 l/m 0 min 0 min 98 W/m 22,5 km/h (4 Bft) 100,00 %
11.02.2019 14:32 6,8 C 6,1 C 5,6 C 93 % 1018,8 hPa 0,0 l/m 0 min 2 min 83 W/m 12,9 km/h (3 Bft) 100,00 %
11.02.2019 14:34 6,7 C 6,1 C 5,6 C 93 % 1018,8 hPa 0,0 l/m 0 min 2 min 61 W/m 16,1 km/h (3 Bft) 100,00 %
11.02.2019 14:36 6,7 C 6,1 C 5,6 C 93 % 1019,0 hPa 0,0 l/m 0 min 2 min 35 W/m 16,1 km/h (3 Bft) 95,74 %
11.02.2019 14:38 6,7 C 5,6 C 5,0 C 93 % 1019,1 hPa 0,0 l/m 0 min 2 min 26 W/m 19,3 km/h (3 Bft) 100,00 %
11.02.2019 14:40 6,7 C 5,6 C 5,0 C 93 % 1019,2 hPa 0,2 l/m 0 min 2 min 26 W/m 25,7 km/h (4 Bft) 100,00 %
11.02.2019 14:42 6,6 C 5,0 C 4,4 C 93 % 1019,2 hPa 0,2 l/m 0 min 2 min 38 W/m 22,5 km/h (4 Bft) 97,87 %
11.02.2019 14:44 6,5 C 5,0 C 4,4 C 93 % 1019,2 hPa 0,0 l/m 0 min 2 min 82 W/m 16,1 km/h (3 Bft) 93,48 %
11.02.2019 14:46 6,5 C 5,0 C 4,4 C 93 % 1019,3 hPa 0,0 l/m 0 min 2 min 99 W/m 12,9 km/h (3 Bft) 91,49 %
11.02.2019 14:48 6,4 C 5,0 C 4,4 C 93 % 1019,3 hPa 0,0 l/m 0 min 0 min 106 W/m 22,5 km/h (4 Bft) 93,62 %
11.02.2019 14:50 6,4 C 5,6 C 5,0 C 93 % 1019,3 hPa 0,0 l/m 0 min 0 min 135 W/m 16,1 km/h (3 Bft) 87,23 %
11.02.2019 14:52 6,4 C 5,6 C 5,0 C 93 % 1019,3 hPa 0,0 l/m 0 min 0 min 151 W/m 16,1 km/h (3 Bft) 100,00 %
11.02.2019 14:54 6,3 C 6,1 C 5,0 C 93 % 1019,3 hPa 0,0 l/m 0 min 0 min 157 W/m 12,9 km/h (3 Bft) 97,87 %
11.02.2019 14:56 6,3 C 6,1 C 5,0 C 93 % 1019,4 hPa 0,0 l/m 0 min 0 min 152 W/m 9,7 km/h (2 Bft) 100,00 %
11.02.2019 14:58 6,3 C 6,1 C 5,0 C 93 % 1019,4 hPa 0,0 l/m 0 min 0 min 111 W/m 12,9 km/h (3 Bft) 100,00 %
11.02.2019 15:00 6,3 C 5,6 C 5,0 C 93 % 1019,5 hPa 0,0 l/m 0 min 0 min 81 W/m 12,9 km/h (3 Bft) 100,00 %
11.02.2019 15:02 6,3 C 5,6 C 4,4 C 93 % 1019,6 hPa 0,0 l/m 0 min 0 min 68 W/m 19,3 km/h (3 Bft) 100,00 %
11.02.2019 15:04 6,2 C 5,6 C 4,4 C 93 % 1019,6 hPa 0,0 l/m 0 min 0 min 75 W/m 12,9 km/h (3 Bft) 100,00 %
11.02.2019 15:06 6,2 C 5,0 C 4,4 C 93 % 1019,7 hPa 0,0 l/m 0 min 0 min 78 W/m 16,1 km/h (3 Bft) 97,83 %
11.02.2019 15:08 6,1 C 5,0 C 4,4 C 93 % 1019,7 hPa 0,0 l/m 0 min 0 min 77 W/m 12,9 km/h (3 Bft) 100,00 %
11.02.2019 15:10 6,0 C 5,0 C 4,4 C 93 % 1019,8 hPa 0,0 l/m 0 min 0 min 74 W/m 9,7 km/h (2 Bft) 97,87 %
11.02.2019 15:12 6,0 C 5,0 C 4,4 C 93 % 1019,9 hPa 0,0 l/m 0 min 0 min 71 W/m 16,1 km/h (3 Bft) 97,87 %
11.02.2019 15:14 5,9 C 5,0 C 4,4 C 93 % 1019,9 hPa 0,0 l/m 0 min 0 min 74 W/m 9,7 km/h (2 Bft) 95,74 %
11.02.2019 15:16 5,9 C 5,0 C 4,4 C 93 % 1019,9 hPa 0,0 l/m 0 min 0 min 84 W/m 12,9 km/h (3 Bft) 93,62 %
11.02.2019 15:18 5,8 C 5,0 C 4,4 C 93 % 1019,9 hPa 0,0 l/m 0 min 0 min 95 W/m 16,1 km/h (3 Bft) 95,65 %
11.02.2019 15:20 5,8 C 5,0 C 4,4 C 93 % 1020,0 hPa 0,0 l/m 0 min 0 min 105 W/m 9,7 km/h (2 Bft) 93,62 %
11.02.2019 15:22 5,8 C 5,0 C 4,4 C 93 % 1019,9 hPa 0,0 l/m 0 min 0 min 108 W/m 12,9 km/h (3 Bft) 95,74 %
11.02.2019 15:24 5,8 C 5,0 C 4,4 C 93 % 1019,9 hPa 0,0 l/m 0 min 0 min 94 W/m 12,9 km/h (3 Bft) 97,87 %
11.02.2019 15:26 5,8 C 5,0 C 4,4 C 93 % 1020,0 hPa 0,0 l/m 0 min 0 min 82 W/m 9,7 km/h (2 Bft) 97,87 %
11.02.2019 15:28 5,7 C 5,0 C 4,4 C 93 % 1020,0 hPa 0,0 l/m 0 min 0 min 89 W/m 9,7 km/h (2 Bft) 93,62 %
11.02.2019 15:30 5,7 C 5,6 C 4,4 C 93 % 1020,0 hPa 0,0 l/m 0 min 0 min 96 W/m 12,9 km/h (3 Bft) 95,65 %
11.02.2019 15:32 5,7 C 5,6 C 4,4 C 93 % 1020,1 hPa 0,0 l/m 0 min 0 min 107 W/m 12,9 km/h (3 Bft) 93,62 %
11.02.2019 15:34 5,7 C 7,8 C 4,4 C 93 % 1020,1 hPa 0,0 l/m 2 min 0 min 186 W/m 9,7 km/h (2 Bft) 91,49 %
11.02.2019 15:36 5,7 C 9,4 C 4,4 C 93 % 1020,2 hPa 0,0 l/m 2 min 0 min 277 W/m 9,7 km/h (2 Bft) 93,62 %
11.02.2019 15:38 5,7 C 8,3 C 4,4 C 93 % 1020,2 hPa 0,0 l/m 2 min 0 min 220 W/m 16,1 km/h (3 Bft) 89,36 %
11.02.2019 15:40 5,8 C 6,7 C 4,4 C 93 % 1020,3 hPa 0,0 l/m 0 min 0 min 53 W/m 9,7 km/h (2 Bft) 93,62 %
11.02.2019 15:42 5,7 C 7,2 C 4,4 C 93 % 1020,3 hPa 0,0 l/m 0 min 0 min 89 W/m 9,7 km/h (2 Bft) 91,49 %
11.02.2019 15:44 5,7 C 8,3 C 3,9 C 93 % 1020,4 hPa 0,0 l/m 2 min 0 min 167 W/m 12,9 km/h (3 Bft) 91,49 %
11.02.2019 15:46 5,7 C 8,9 C 4,4 C 93 % 1020,3 hPa 0,0 l/m 2 min 0 min 224 W/m 12,9 km/h (3 Bft) 91,49 %
11.02.2019 15:48 5,7 C 9,4 C 4,4 C 93 % 1020,3 hPa 0,0 l/m 2 min 0 min 217 W/m 19,3 km/h (3 Bft) 91,49 %
11.02.2019 15:50 5,7 C 10,0 C 4,4 C 93 % 1020,3 hPa 0,0 l/m 2 min 0 min 213 W/m 16,1 km/h (3 Bft) 91,30 %
11.02.2019 15:52 5,7 C 10,0 C 4,4 C 92 % 1020,3 hPa 0,0 l/m 2 min 0 min 209 W/m 9,7 km/h (2 Bft) 91,49 %
11.02.2019 15:54 5,8 C 10,6 C 4,4 C 92 % 1020,3 hPa 0,0 l/m 2 min 0 min 204 W/m 12,9 km/h (3 Bft) 89,36 %
11.02.2019 15:56 5,8 C 10,6 C 4,4 C 92 % 1020,3 hPa 0,0 l/m 2 min 0 min 197 W/m 9,7 km/h (2 Bft) 95,74 %
11.02.2019 15:58 5,8 C 10,6 C 4,4 C 92 % 1020,3 hPa 0,0 l/m 2 min 0 min 192 W/m 9,7 km/h (2 Bft) 95,74 %
11.02.2019 16:00 5,8 C 10,0 C 4,4 C 93 % 1020,3 hPa 0,0 l/m 2 min 0 min 187 W/m 16,1 km/h (3 Bft) 95,65 %
11.02.2019 16:02 5,9 C 10,6 C 4,4 C 92 % 1020,4 hPa 0,0 l/m 2 min 0 min 182 W/m 9,7 km/h (2 Bft) 93,62 %
11.02.2019 16:04 5,9 C 10,6 C 4,4 C 92 % 1020,5 hPa 0,0 l/m 2 min 0 min 175 W/m 16,1 km/h (3 Bft) 93,62 %
11.02.2019 16:06 5,9 C 10,0 C 4,4 C 92 % 1020,5 hPa 0,0 l/m 2 min 0 min 169 W/m 12,9 km/h (3 Bft) 95,74 %
11.02.2019 16:08 5,9 C 9,4 C 4,4 C 92 % 1020,5 hPa 0,0 l/m 2 min 0 min 163 W/m 12,9 km/h (3 Bft) 95,74 %
11.02.2019 16:10 5,9 C 8,9 C 4,4 C 92 % 1020,5 hPa 0,0 l/m 2 min 0 min 159 W/m 16,1 km/h (3 Bft) 95,74 %
11.02.2019 16:12 5,9 C 8,3 C 4,4 C 92 % 1020,6 hPa 0,0 l/m 2 min 0 min 154 W/m 12,9 km/h (3 Bft) 95,65 %
11.02.2019 16:14 5,9 C 7,2 C 4,4 C 92 % 1020,7 hPa 0,0 l/m 2 min 0 min 146 W/m 16,1 km/h (3 Bft) 95,74 %
11.02.2019 16:16 5,9 C 6,7 C 4,4 C 92 % 1020,8 hPa 0,0 l/m 2 min 0 min 112 W/m 19,3 km/h (3 Bft) 97,87 %
11.02.2019 16:18 5,9 C 6,1 C 4,4 C 92 % 1020,9 hPa 0,0 l/m 0 min 0 min 53 W/m 12,9 km/h (3 Bft) 93,62 %
11.02.2019 16:20 5,8 C 5,6 C 4,4 C 92 % 1020,9 hPa 0,0 l/m 0 min 0 min 44 W/m 12,9 km/h (3 Bft) 95,74 %
11.02.2019 16:22 5,8 C 5,6 C 4,4 C 92 % 1020,9 hPa 0,0 l/m 0 min 0 min 42 W/m 12,9 km/h (3 Bft) 97,87 %
11.02.2019 16:24 5,8 C 5,6 C 3,9 C 92 % 1020,9 hPa 0,0 l/m 0 min 0 min 42 W/m 9,7 km/h (2 Bft) 97,83 %
11.02.2019 16:26 5,8 C 5,6 C 4,4 C 92 % 1021,0 hPa 0,0 l/m 0 min 0 min 41 W/m 16,1 km/h (3 Bft) 97,87 %
11.02.2019 16:28 5,8 C 5,6 C 4,4 C 92 % 1021,0 hPa 0,0 l/m 0 min 0 min 40 W/m 16,1 km/h (3 Bft) 95,74 %
11.02.2019 16:30 5,8 C 5,6 C 4,4 C 92 % 1021,1 hPa 0,0 l/m 0 min 0 min 39 W/m 12,9 km/h (3 Bft) 97,87 %
11.02.2019 16:32 5,8 C 5,6 C 3,9 C 92 % 1021,1 hPa 0,0 l/m 0 min 0 min 38 W/m 12,9 km/h (3 Bft) 97,87 %
11.02.2019 16:34 5,8 C 5,6 C 4,4 C 92 % 1021,1 hPa 0,0 l/m 0 min 0 min 37 W/m 16,1 km/h (3 Bft) 100,00 %
11.02.2019 16:36 5,8 C 5,6 C 4,4 C 92 % 1021,3 hPa 0,0 l/m 0 min 0 min 35 W/m 16,1 km/h (3 Bft) 100,00 %
11.02.2019 16:38 5,8 C 5,6 C 4,4 C 92 % 1021,2 hPa 0,0 l/m 0 min 0 min 34 W/m 16,1 km/h (3 Bft) 100,00 %
11.02.2019 16:40 5,8 C 5,6 C 4,4 C 92 % 1021,2 hPa 0,0 l/m 0 min 0 min 33 W/m 12,9 km/h (3 Bft) 100,00 %
11.02.2019 16:42 5,8 C 5,6 C 3,9 C 92 % 1021,3 hPa 0,0 l/m 0 min 0 min 33 W/m 16,1 km/h (3 Bft) 100,00 %
11.02.2019 16:44 5,8 C 5,6 C 3,9 C 92 % 1021,4 hPa 0,0 l/m 0 min 0 min 33 W/m 12,9 km/h (3 Bft) 100,00 %
11.02.2019 16:46 5,7 C 5,6 C 3,9 C 92 % 1021,4 hPa 0,0 l/m 0 min 0 min 33 W/m 22,5 km/h (4 Bft) 100,00 %
11.02.2019 16:48 5,7 C 5,6 C 3,9 C 92 % 1021,5 hPa 0,0 l/m 0 min 0 min 33 W/m 19,3 km/h (3 Bft) 100,00 %
11.02.2019 16:50 5,7 C 5,6 C 3,9 C 92 % 1021,6 hPa 0,0 l/m 0 min 0 min 32 W/m 25,7 km/h (4 Bft) 100,00 %
11.02.2019 16:52 5,7 C 5,6 C 3,9 C 92 % 1021,6 hPa 0,0 l/m 0 min 0 min 33 W/m 16,1 km/h (3 Bft) 97,87 %
11.02.2019 16:54 5,7 C 5,6 C 3,9 C 92 % 1021,6 hPa 0,0 l/m 0 min 0 min 35 W/m 12,9 km/h (3 Bft) 100,00 %
11.02.2019 16:56 5,7 C 5,6 C 4,4 C 91 % 1021,7 hPa 0,0 l/m 0 min 0 min 39 W/m 16,1 km/h (3 Bft) 100,00 %
11.02.2019 16:58 5,7 C 5,6 C 4,4 C 91 % 1021,7 hPa 0,0 l/m 0 min 0 min 39 W/m 16,1 km/h (3 Bft) 100,00 %
11.02.2019 17:00 5,7 C 5,6 C 4,4 C 91 % 1021,9 hPa 0,0 l/m 0 min 0 min 35 W/m 12,9 km/h (3 Bft) 100,00 %
11.02.2019 17:02 5,7 C 5,6 C 3,9 C 91 % 1021,9 hPa 0,0 l/m 0 min 0 min 29 W/m 19,3 km/h (3 Bft) 100,00 %
11.02.2019 17:04 5,7 C 5,6 C 3,9 C 90 % 1022,0 hPa 0,0 l/m 0 min 0 min 25 W/m 19,3 km/h (3 Bft) 100,00 %
11.02.2019 17:06 5,6 C 5,0 C 3,9 C 90 % 1022,0 hPa 0,0 l/m 0 min 0 min 22 W/m 16,1 km/h (3 Bft) 97,87 %
11.02.2019 17:08 5,6 C 5,6 C 3,9 C 90 % 1022,0 hPa 0,0 l/m 0 min 0 min 22 W/m 19,3 km/h (3 Bft) 97,87 %
11.02.2019 17:10 5,6 C 5,0 C 3,9 C 89 % 1022,0 hPa 0,0 l/m 0 min 0 min 22 W/m 16,1 km/h (3 Bft) 100,00 %
11.02.2019 17:12 5,6 C 5,0 C 3,9 C 89 % 1022,1 hPa 0,0 l/m 0 min 0 min 19 W/m 12,9 km/h (3 Bft) 100,00 %
11.02.2019 17:14 5,5 C 5,0 C 3,9 C 88 % 1022,1 hPa 0,0 l/m 0 min 0 min 18 W/m 16,1 km/h (3 Bft) 100,00 %
11.02.2019 17:16 5,5 C 5,0 C 3,9 C 88 % 1022,2 hPa 0,0 l/m 0 min 0 min 16 W/m 16,1 km/h (3 Bft) 97,87 %
11.02.2019 17:18 5,4 C 5,0 C 3,3 C 88 % 1022,2 hPa 0,0 l/m 0 min 0 min 15 W/m 12,9 km/h (3 Bft) 100,00 %
11.02.2019 17:20 5,4 C 5,0 C 3,3 C 87 % 1022,2 hPa 0,0 l/m 0 min 0 min 13 W/m 16,1 km/h (3 Bft) 100,00 %
11.02.2019 17:22 5,4 C 5,0 C 3,3 C 87 % 1022,3 hPa 0,0 l/m 0 min 0 min 12 W/m 16,1 km/h (3 Bft) 97,83 %
11.02.2019 17:24 5,4 C 4,4 C 3,3 C 87 % 1022,5 hPa 0,0 l/m 0 min 0 min 11 W/m 9,7 km/h (2 Bft) 97,87 %
11.02.2019 17:26 5,4 C 4,4 C 3,3 C 87 % 1022,6 hPa 0,0 l/m 0 min 0 min 10 W/m 19,3 km/h (3 Bft) 100,00 %
11.02.2019 17:28 5,3 C 4,4 C 3,3 C 86 % 1022,7 hPa 0,0 l/m 0 min 0 min 9 W/m 16,1 km/h (3 Bft) 97,87 %
11.02.2019 17:30 5,3 C 4,4 C 3,3 C 86 % 1022,7 hPa 0,0 l/m 0 min 0 min 8 W/m 25,7 km/h (4 Bft) 97,87 %
11.02.2019 17:32 5,3 C 4,4 C 3,3 C 86 % 1022,7 hPa 0,0 l/m 0 min 0 min 7 W/m 16,1 km/h (3 Bft) 97,87 %
11.02.2019 17:34 5,2 C 4,4 C 3,3 C 86 % 1022,7 hPa 0,0 l/m 0 min 0 min 7 W/m 22,5 km/h (4 Bft) 97,83 %
11.02.2019 17:36 5,2 C 4,4 C 3,3 C 86 % 1022,9 hPa 0,0 l/m 0 min 0 min 5 W/m 22,5 km/h (4 Bft) 97,87 %
11.02.2019 17:38 5,2 C 4,4 C 3,3 C 85 % 1022,9 hPa 0,0 l/m 0 min 0 min 5 W/m 16,1 km/h (3 Bft) 97,87 %
11.02.2019 17:40 5,2 C 4,4 C 2,8 C 85 % 1023,0 hPa 0,0 l/m 0 min 0 min 4 W/m 19,3 km/h (3 Bft) 95,74 %
11.02.2019 17:42 5,1 C 4,4 C 3,3 C 85 % 1023,1 hPa 0,0 l/m 0 min 0 min 0 W/m 22,5 km/h (4 Bft) 97,87 %
11.02.2019 17:44 5,1 C 4,4 C 3,3 C 85 % 1023,1 hPa 0,0 l/m 0 min 0 min 0 W/m 22,5 km/h (4 Bft) 97,87 %
11.02.2019 17:46 5,1 C 4,4 C 2,8 C 84 % 1023,3 hPa 0,0 l/m 0 min 0 min 0 W/m 19,3 km/h (3 Bft) 97,87 %
11.02.2019 17:48 5,0 C 4,4 C 2,8 C 84 % 1023,3 hPa 0,0 l/m 0 min 0 min 0 W/m 25,7 km/h (4 Bft) 95,74 %
11.02.2019 17:50 5,0 C 4,4 C 3,3 C 84 % 1023,3 hPa 0,0 l/m 0 min 0 min 0 W/m 22,5 km/h (4 Bft) 97,83 %
11.02.2019 17:52 5,0 C 4,4 C 2,8 C 83 % 1023,3 hPa 0,0 l/m 0 min 0 min 0 W/m 16,1 km/h (3 Bft) 95,74 %
11.02.2019 17:54 5,0 C 4,4 C 2,8 C 83 % 1023,4 hPa 0,0 l/m 0 min 0 min 0 W/m 22,5 km/h (4 Bft) 95,74 %
11.02.2019 17:56 4,9 C 3,9 C 2,8 C 83 % 1023,4 hPa 0,0 l/m 0 min 0 min 0 W/m 16,1 km/h (3 Bft) 93,62 %
11.02.2019 17:58 4,9 C 3,9 C 2,8 C 83 % 1023,4 hPa 0,0 l/m 0 min 0 min 0 W/m 12,9 km/h (3 Bft) 95,74 %
11.02.2019 18:00 4,9 C 3,9 C 2,8 C 83 % 1023,4 hPa 0,0 l/m 0 min 0 min 0 W/m 9,7 km/h (2 Bft) 95,74 %
11.02.2019 18:02 4,9 C 3,9 C 2,8 C 83 % 1023,5 hPa 0,0 l/m 0 min 0 min 0 W/m 12,9 km/h (3 Bft) 93,48 %
11.02.2019 18:04 4,9 C 3,9 C 2,8 C 83 % 1023,6 hPa 0,0 l/m 0 min 0 min 0 W/m 12,9 km/h (3 Bft) 91,49 %
11.02.2019 18:07 4,8 C 3,3 C 2,8 C 83 % 1023,8 hPa 0,0 l/m 0 min 0 min 0 W/m 9,7 km/h (2 Bft) 92,86 %
11.02.2019 18:08 4,8 C 3,3 C 2,8 C 83 % 1023,8 hPa 0,0 l/m 0 min 0 min 0 W/m 9,7 km/h (2 Bft) 95,83 %
11.02.2019 18:10 4,7 C 3,3 C 2,8 C 83 % 1023,9 hPa 0,0 l/m 0 min 0 min 0 W/m 12,9 km/h (3 Bft) 89,36 %
11.02.2019 18:12 4,7 C 3,3 C 2,8 C 83 % 1024,0 hPa 0,0 l/m 0 min 0 min 0 W/m 16,1 km/h (3 Bft) 91,49 %
11.02.2019 18:14 4,7 C 3,3 C 2,2 C 83 % 1024,1 hPa 0,0 l/m 0 min 0 min 0 W/m 9,7 km/h (2 Bft) 93,48 %
11.02.2019 18:16 4,6 C 3,3 C 2,8 C 83 % 1024,1 hPa 0,0 l/m 0 min 0 min 0 W/m 16,1 km/h (3 Bft) 93,62 %
11.02.2019 18:18 4,6 C 3,3 C 2,8 C 83 % 1024,1 hPa 0,0 l/m 0 min 0 min 0 W/m 16,1 km/h (3 Bft) 95,74 %
11.02.2019 18:20 4,5 C 3,3 C 2,2 C 83 % 1024,1 hPa 0,0 l/m 0 min 0 min 0 W/m 6,4 km/h (2 Bft) 93,62 %
11.02.2019 18:22 4,5 C 3,3 C 2,2 C 83 % 1024,2 hPa 0,0 l/m 0 min 0 min 0 W/m 9,7 km/h (2 Bft) 95,74 %
11.02.2019 18:24 4,4 C 3,3 C 2,2 C 83 % 1024,2 hPa 0,0 l/m 0 min 0 min 0 W/m 16,1 km/h (3 Bft) 95,74 %
11.02.2019 18:26 4,4 C 3,3 C 2,2 C 83 % 1024,2 hPa 0,0 l/m 0 min 0 min 0 W/m 22,5 km/h (4 Bft) 91,30 %
11.02.2019 18:28 4,4 C 3,3 C 2,2 C 84 % 1024,3 hPa 0,0 l/m 0 min 0 min 0 W/m 19,3 km/h (3 Bft) 95,74 %
11.02.2019 18:30 4,4 C 3,3 C 2,2 C 84 % 1024,3 hPa 0,0 l/m 0 min 0 min 0 W/m 9,7 km/h (2 Bft) 95,74 %
11.02.2019 18:32 4,4 C 3,3 C 2,2 C 84 % 1024,3 hPa 0,0 l/m 0 min 0 min 0 W/m 12,9 km/h (3 Bft) 91,49 %
11.02.2019 18:34 4,3 C 3,3 C 2,2 C 84 % 1024,4 hPa 0,0 l/m 0 min 0 min 0 W/m 12,9 km/h (3 Bft) 95,74 %
11.02.2019 18:36 4,3 C 3,3 C 2,2 C 84 % 1024,4 hPa 0,0 l/m 0 min 0 min 0 W/m 6,4 km/h (2 Bft) 95,65 %
11.02.2019 18:38 4,3 C 3,3 C 2,2 C 84 % 1024,4 hPa 0,0 l/m 0 min 0 min 0 W/m 12,9 km/h (3 Bft) 95,74 %
11.02.2019 18:40 4,3 C 3,3 C 2,2 C 84 % 1024,4 hPa 0,0 l/m 0 min 0 min 0 W/m 9,7 km/h (2 Bft) 97,87 %
11.02.2019 18:42 4,2 C 3,3 C 2,2 C 84 % 1024,5 hPa 0,0 l/m 0 min 0 min 0 W/m 12,9 km/h (3 Bft) 95,74 %
11.02.2019 18:44 4,2 C 3,3 C 2,2 C 84 % 1024,6 hPa 0,0 l/m 0 min 0 min 0 W/m 9,7 km/h (2 Bft) 97,87 %
11.02.2019 18:46 4,2 C 3,3 C 2,2 C 84 % 1024,6 hPa 0,0 l/m 0 min 0 min 0 W/m 6,4 km/h (2 Bft) 97,87 %
11.02.2019 18:48 4,2 C 2,8 C 1,7 C 85 % 1024,6 hPa 0,0 l/m 0 min 0 min 0 W/m 6,4 km/h (2 Bft) 97,83 %
11.02.2019 18:50 4,2 C 2,8 C 1,7 C 85 % 1024,7 hPa 0,0 l/m 0 min 0 min 0 W/m 3,2 km/h (1 Bft) 97,87 %
11.02.2019 18:52 4,1 C 2,8 C 1,7 C 85 % 1024,7 hPa 0,0 l/m 0 min 0 min 0 W/m 6,4 km/h (2 Bft) 97,87 %
11.02.2019 18:54 4,1 C 2,8 C 1,7 C 85 % 1024,7 hPa 0,0 l/m 0 min 0 min 0 W/m 3,2 km/h (1 Bft) 97,87 %
11.02.2019 18:56 4,1 C 2,8 C 1,7 C 85 % 1024,8 hPa 0,0 l/m 0 min 0 min 0 W/m 3,2 km/h (1 Bft) 95,74 %
11.02.2019 18:58 4,0 C 2,2 C 1,1 C 85 % 1024,8 hPa 0,0 l/m 0 min 0 min 0 W/m 3,2 km/h (1 Bft) 97,87 %
11.02.2019 19:00 4,0 C 2,2 C 1,1 C 85 % 1024,8 hPa 0,0 l/m 0 min 0 min 0 W/m 9,7 km/h (2 Bft) 95,65 %
11.02.2019 19:02 3,9 C 2,2 C 1,1 C 85 % 1024,9 hPa 0,0 l/m 0 min 0 min 0 W/m 6,4 km/h (2 Bft) 95,74 %
11.02.2019 19:04 3,9 C 2,2 C 1,1 C 85 % 1024,9 hPa 0,0 l/m 0 min 0 min 0 W/m 9,7 km/h (2 Bft) 97,87 %
11.02.2019 19:06 3,8 C 2,2 C 1,1 C 85 % 1025,0 hPa 0,0 l/m 0 min 0 min 0 W/m 9,7 km/h (2 Bft) 100,00 %
11.02.2019 19:08 3,8 C 2,2 C 1,1 C 85 % 1025,1 hPa 0,0 l/m 0 min 0 min 0 W/m 3,2 km/h (1 Bft) 100,00 %
11.02.2019 19:10 3,8 C 2,2 C 1,1 C 85 % 1025,1 hPa 0,0 l/m 0 min 0 min 0 W/m 6,4 km/h (2 Bft) 97,87 %
11.02.2019 19:12 3,8 C 2,2 C 0,6 C 85 % 1025,1 hPa 0,0 l/m 0 min 0 min 0 W/m 3,2 km/h (1 Bft) 100,00 %
11.02.2019 19:14 3,7 C 2,2 C 0,6 C 85 % 1025,0 hPa 0,0 l/m 0 min 0 min 0 W/m 3,2 km/h (1 Bft) 97,87 %
11.02.2019 19:16 3,7 C 2,2 C 0,6 C 85 % 1025,0 hPa 0,0 l/m 0 min 0 min 0 W/m 0,0 km/h (0 Bft) 100,00 %
11.02.2019 19:18 3,7 C 1,7 C 0,6 C 85 % 1024,9 hPa 0,0 l/m 0 min 0 min 0 W/m 3,2 km/h (1 Bft) 97,87 %
11.02.2019 19:20 3,6 C 1,7 C 0,6 C 85 % 1025,0 hPa 0,0 l/m 0 min 0 min 0 W/m 3,2 km/h (1 Bft) 97,87 %
11.02.2019 19:22 3,6 C 1,7 C 0,6 C 85 % 1025,0 hPa 0,0 l/m 0 min 0 min 0 W/m 0,0 km/h (0 Bft) 95,74 %
11.02.2019 19:24 3,6 C 1,7 C 0,0 C 85 % 1025,1 hPa 0,0 l/m 0 min 0 min 0 W/m 0,0 km/h (0 Bft) 100,00 %
11.02.2019 19:26 3,5 C 1,7 C 0,0 C 85 % 1025,0 hPa 0,0 l/m 0 min 0 min 0 W/m 0,0 km/h (0 Bft) 100,00 %
11.02.2019 19:28 3,5 C 1,1 C 0,0 C 85 % 1025,1 hPa 0,0 l/m 0 min 0 min 0 W/m 0,0 km/h (0 Bft) 100,00 %
11.02.2019 19:30 3,4 C 1,1 C 0,0 C 85 % 1025,2 hPa 0,0 l/m 0 min 0 min 0 W/m 0,0 km/h (0 Bft) 97,87 %
11.02.2019 19:32 3,4 C 1,1 C 0,0 C 85 % 1025,3 hPa 0,0 l/m 0 min 0 min 0 W/m 3,2 km/h (1 Bft) 97,87 %
11.02.2019 19:34 3,3 C 1,1 C 0,0 C 85 % 1025,2 hPa 0,0 l/m 0 min 0 min 0 W/m 0,0 km/h (0 Bft) 100,00 %
11.02.2019 19:36 3,3 C 1,7 C 0,0 C 86 % 1025,4 hPa 0,0 l/m 0 min 0 min 0 W/m 3,2 km/h (1 Bft) 100,00 %
11.02.2019 19:38 3,2 C 1,7 C 0,0 C 86 % 1025,4 hPa 0,0 l/m 0 min 0 min 0 W/m 3,2 km/h (1 Bft) 100,00 %
11.02.2019 19:40 3,2 C 1,7 C 0,0 C 86 % 1025,5 hPa 0,0 l/m 0 min 0 min 0 W/m 6,4 km/h (2 Bft) 97,87 %
11.02.2019 19:42 3,1 C 1,7 C 0,0 C 86 % 1025,5 hPa 0,0 l/m 0 min 0 min 0 W/m 3,2 km/h (1 Bft) 97,87 %
11.02.2019 19:44 3,1 C 1,7 C 0,0 C 86 % 1025,5 hPa 0,0 l/m 0 min 0 min 0 W/m 0,0 km/h (0 Bft) 95,74 %
11.02.2019 19:46 3,1 C 1,7 C 0,0 C 86 % 1025,7 hPa 0,0 l/m 0 min 0 min 0 W/m 3,2 km/h (1 Bft) 97,83 %
11.02.2019 19:48 3,0 C 1,7 C 0,0 C 86 % 1025,7 hPa 0,0 l/m 0 min 0 min 0 W/m 3,2 km/h (1 Bft) 95,74 %
11.02.2019 19:50 2,9 C 1,7 C 0,0 C 86 % 1025,7 hPa 0,0 l/m 0 min 0 min 0 W/m 3,2 km/h (1 Bft) 95,74 %
11.02.2019 19:52 2,9 C 1,1 C 0,0 C 86 % 1025,7 hPa 0,0 l/m 0 min 0 min 0 W/m 0,0 km/h (0 Bft) 87,23 %
11.02.2019 19:54 2,9 C 1,1 C 0,0 C 86 % 1025,8 hPa 0,0 l/m 0 min 0 min 0 W/m 0,0 km/h (0 Bft) 95,74 %
11.02.2019 19:56 2,8 C 1,1 C 0,0 C 86 % 1025,8 hPa 0,0 l/m 0 min 0 min 0 W/m 3,2 km/h (1 Bft) 95,74 %
11.02.2019 19:58 2,8 C 1,1 C 0,0 C 87 % 1026,0 hPa 0,0 l/m 0 min 0 min 0 W/m 3,2 km/h (1 Bft) 95,65 %
11.02.2019 20:00 2,7 C 1,1 C 0,0 C 87 % 1026,0 hPa 0,0 l/m 0 min 0 min 0 W/m 3,2 km/h (1 Bft) 95,74 %
11.02.2019 20:02 2,7 C 1,1 C 0,0 C 87 % 1026,0 hPa 0,0 l/m 0 min 0 min 0 W/m 3,2 km/h (1 Bft) 95,74 %
11.02.2019 20:04 2,7 C 1,1 C 0,0 C 87 % 1026,0 hPa 0,0 l/m 0 min 0 min 0 W/m 3,2 km/h (1 Bft) 97,87 %
11.02.2019 20:06 2,6 C 1,1 C -0,6 C 87 % 1025,9 hPa 0,0 l/m 0 min 0 min 0 W/m 3,2 km/h (1 Bft) 95,74 %
11.02.2019 20:08 2,6 C 1,1 C -0,6 C 87 % 1025,9 hPa 0,0 l/m 0 min 0 min 0 W/m 3,2 km/h (1 Bft) 93,75 %
11.02.2019 20:10 2,6 C 1,1 C -0,6 C 87 % 1025,8 hPa 0,0 l/m 0 min 0 min 0 W/m 3,2 km/h (1 Bft) 95,65 %
11.02.2019 20:12 2,5 C 1,1 C -0,6 C 87 % 1025,7 hPa 0,0 l/m 0 min 0 min 0 W/m 3,2 km/h (1 Bft) 95,74 %
11.02.2019 20:14 2,5 C 1,1 C -0,6 C 87 % 1025,5 hPa 0,0 l/m 0 min 0 min 0 W/m 3,2 km/h (1 Bft) 97,87 %
11.02.2019 20:16 2,4 C 1,7 C -0,6 C 87 % 1025,4 hPa 0,0 l/m 0 min 0 min 0 W/m 3,2 km/h (1 Bft) 93,62 %
11.02.2019 20:18 2,4 C 1,1 C -0,6 C 87 % 1025,3 hPa 0,0 l/m 0 min 0 min 0 W/m 0,0 km/h (0 Bft) 95,74 %
11.02.2019 20:20 2,4 C 1,1 C -0,6 C 88 % 1025,4 hPa 0,0 l/m 0 min 0 min 0 W/m 0,0 km/h (0 Bft) 95,74 %
11.02.2019 20:22 2,4 C 0,6 C -0,6 C 88 % 1025,5 hPa 0,0 l/m 0 min 0 min 0 W/m 3,2 km/h (1 Bft) 97,83 %
11.02.2019 20:24 2,3 C 0,6 C -0,6 C 88 % 1025,6 hPa 0,0 l/m 0 min 0 min 0 W/m 3,2 km/h (1 Bft) 93,62 %
11.02.2019 20:26 2,3 C 0,6 C -0,6 C 88 % 1025,7 hPa 0,0 l/m 0 min 0 min 0 W/m 6,4 km/h (2 Bft) 93,62 %
11.02.2019 20:28 2,3 C 0,6 C -0,6 C 88 % 1025,7 hPa 0,0 l/m 0 min 0 min 0 W/m 3,2 km/h (1 Bft) 95,74 %
11.02.2019 20:30 2,2 C 0,6 C -0,6 C 88 % 1025,8 hPa 0,0 l/m 0 min 0 min 0 W/m 6,4 km/h (2 Bft) 95,74 %
11.02.2019 20:32 2,2 C 1,1 C -0,6 C 88 % 1025,8 hPa 0,0 l/m 0 min 0 min 0 W/m 3,2 km/h (1 Bft) 95,65 %
11.02.2019 20:34 2,2 C 1,1 C -0,6 C 88 % 1025,8 hPa 0,0 l/m 0 min 0 min 0 W/m 3,2 km/h (1 Bft) 97,87 %
11.02.2019 20:36 2,2 C 0,6 C -0,6 C 88 % 1026,2 hPa 0,0 l/m 0 min 0 min 0 W/m 6,4 km/h (2 Bft) 97,87 %
11.02.2019 20:38 2,1 C 0,6 C -0,6 C 88 % 1026,3 hPa 0,0 l/m 0 min 0 min 0 W/m 6,4 km/h (2 Bft) 95,83 %
11.02.2019 20:40 2,1 C 0,6 C -0,6 C 88 % 1026,3 hPa 0,0 l/m 0 min 0 min 0 W/m 6,4 km/h (2 Bft) 97,87 %
11.02.2019 20:42 2,1 C 0,6 C -0,6 C 88 % 1026,3 hPa 0,0 l/m 0 min 0 min 0 W/m 6,4 km/h (2 Bft) 97,87 %
11.02.2019 20:44 2,0 C 1,1 C -0,6 C 88 % 1026,3 hPa 0,0 l/m 0 min 0 min 0 W/m 6,4 km/h (2 Bft) 97,87 %
11.02.2019 20:46 2,0 C 1,1 C -0,6 C 89 % 1026,1 hPa 0,0 l/m 0 min 0 min 0 W/m 6,4 km/h (2 Bft) 97,83 %
11.02.2019 20:48 2,0 C 1,1 C -0,6 C 89 % 1026,2 hPa 0,0 l/m 0 min 0 min 0 W/m 6,4 km/h (2 Bft) 97,87 %
11.02.2019 20:50 1,9 C 1,1 C 0,0 C 89 % 1026,3 hPa 0,0 l/m 0 min 0 min 0 W/m 6,4 km/h (2 Bft) 91,49 %
11.02.2019 20:52 1,9 C 1,1 C 0,0 C 89 % 1026,2 hPa 0,0 l/m 0 min 0 min 0 W/m 3,2 km/h (1 Bft) 97,87 %
11.02.2019 20:54 1,9 C 1,1 C 0,0 C 89 % 1026,2 hPa 0,0 l/m 0 min 0 min 0 W/m 3,2 km/h (1 Bft) 97,87 %
11.02.2019 20:56 1,9 C 1,1 C 0,0 C 89 % 1026,2 hPa 0,0 l/m 0 min 0 min 0 W/m 3,2 km/h (1 Bft) 97,83 %
11.02.2019 20:58 1,9 C 1,1 C 0,0 C 89 % 1026,3 hPa 0,0 l/m 0 min 0 min 0 W/m 3,2 km/h (1 Bft) 97,87 %
11.02.2019 21:00 1,9 C 0,6 C 0,0 C 89 % 1026,3 hPa 0,0 l/m 0 min 0 min 0 W/m 3,2 km/h (1 Bft) 97,87 %
11.02.2019 21:02 1,9 C 1,1 C -0,6 C 89 % 1026,3 hPa 0,0 l/m 0 min 0 min 0 W/m 0,0 km/h (0 Bft) 95,74 %
11.02.2019 21:04 1,8 C 0,6 C -0,6 C 90 % 1026,4 hPa 0,0 l/m 0 min 0 min 0 W/m 3,2 km/h (1 Bft) 97,87 %
11.02.2019 21:06 1,8 C 0,6 C -0,6 C 90 % 1026,4 hPa 0,0 l/m 0 min 0 min 0 W/m 3,2 km/h (1 Bft) 95,74 %
11.02.2019 21:08 1,8 C 0,6 C -0,6 C 90 % 1026,4 hPa 0,0 l/m 0 min 0 min 0 W/m 3,2 km/h (1 Bft) 97,83 %
11.02.2019 21:10 1,8 C 0,6 C -0,6 C 90 % 1026,4 hPa 0,0 l/m 0 min 0 min 0 W/m 3,2 km/h (1 Bft) 97,67 %
11.02.2019 21:12 1,8 C 0,6 C -0,6 C 90 % 1026,4 hPa 0,0 l/m 0 min 0 min 0 W/m 0,0 km/h (0 Bft) 95,74 %
11.02.2019 21:14 1,8 C 0,6 C -0,6 C 90 % 1026,6 hPa 0,0 l/m 0 min 0 min 0 W/m 0,0 km/h (0 Bft) 100,00 %
11.02.2019 21:16 1,7 C 0,0 C -1,1 C 90 % 1026,6 hPa 0,0 l/m 0 min 0 min 0 W/m 0,0 km/h (0 Bft) 97,83 %
11.02.2019 21:18 1,7 C 0,6 C -1,1 C 90 % 1026,6 hPa 0,0 l/m 0 min 0 min 0 W/m 0,0 km/h (0 Bft) 100,00 %
11.02.2019 21:20 1,7 C 0,6 C -1,1 C 90 % 1026,6 hPa 0,0 l/m 0 min 0 min 0 W/m 3,2 km/h (1 Bft) 100,00 %
11.02.2019 21:22 1,7 C 0,6 C -1,1 C 90 % 1026,7 hPa 0,0 l/m 0 min 0 min 0 W/m 3,2 km/h (1 Bft) 100,00 %
11.02.2019 21:24 1,7 C 0,6 C -1,1 C 90 % 1026,7 hPa 0,0 l/m 0 min 0 min 0 W/m 3,2 km/h (1 Bft) 100,00 %
11.02.2019 21:26 1,6 C 0,6 C -1,1 C 90 % 1026,7 hPa 0,0 l/m 0 min 0 min 0 W/m 6,4 km/h (2 Bft) 97,87 %
11.02.2019 21:28 1,6 C 0,0 C -1,1 C 90 % 1026,7 hPa 0,0 l/m 0 min 0 min 0 W/m 6,4 km/h (2 Bft) 100,00 %
11.02.2019 21:30 1,6 C 0,6 C -1,1 C 90 % 1026,8 hPa 0,0 l/m 0 min 0 min 0 W/m 3,2 km/h (1 Bft) 97,87 %
11.02.2019 21:32 1,6 C 0,6 C -1,1 C 90 % 1026,8 hPa 0,0 l/m 0 min 0 min 0 W/m 6,4 km/h (2 Bft) 100,00 %
11.02.2019 21:34 1,5 C 0,0 C -1,1 C 90 % 1026,8 hPa 0,0 l/m 0 min 0 min 0 W/m 3,2 km/h (1 Bft) 97,87 %
11.02.2019 21:36 1,5 C 0,0 C -1,1 C 90 % 1026,8 hPa 0,0 l/m 0 min 0 min 0 W/m 3,2 km/h (1 Bft) 95,74 %
11.02.2019 21:38 1,5 C 0,0 C -1,1 C 90 % 1026,9 hPa 0,0 l/m 0 min 0 min 0 W/m 3,2 km/h (1 Bft) 97,83 %
11.02.2019 21:40 1,4 C 0,0 C -1,1 C 90 % 1026,9 hPa 0,0 l/m 0 min 0 min 0 W/m 3,2 km/h (1 Bft) 100,00 %
11.02.2019 21:42 1,4 C 0,0 C -1,1 C 90 % 1026,9 hPa 0,0 l/m 0 min 0 min 0 W/m 3,2 km/h (1 Bft) 97,87 %
11.02.2019 21:44 1,4 C 0,0 C -1,1 C 90 % 1027,0 hPa 0,0 l/m 0 min 0 min 0 W/m 3,2 km/h (1 Bft) 97,87 %
11.02.2019 21:46 1,4 C 0,0 C -1,1 C 90 % 1027,0 hPa 0,0 l/m 0 min 0 min 0 W/m 3,2 km/h (1 Bft) 100,00 %
11.02.2019 21:48 1,4 C 0,0 C -1,1 C 91 % 1027,0 hPa 0,0 l/m 0 min 0 min 0 W/m 3,2 km/h (1 Bft) 97,87 %
11.02.2019 21:50 1,3 C 0,0 C -1,1 C 91 % 1027,0 hPa 0,0 l/m 0 min 0 min 0 W/m 3,2 km/h (1 Bft) 97,87 %
11.02.2019 21:52 1,3 C 0,0 C -1,1 C 91 % 1027,1 hPa 0,0 l/m 0 min 0 min 0 W/m 3,2 km/h (1 Bft) 97,83 %
11.02.2019 21:54 1,3 C 0,0 C -1,1 C 90 % 1027,1 hPa 0,0 l/m 0 min 0 min 0 W/m 3,2 km/h (1 Bft) 95,74 %
11.02.2019 21:56 1,3 C 0,0 C -1,1 C 91 % 1027,1 hPa 0,0 l/m 0 min 0 min 0 W/m 3,2 km/h (1 Bft) 93,62 %
11.02.2019 21:58 1,3 C 0,0 C -1,1 C 91 % 1027,2 hPa 0,0 l/m 0 min 0 min 0 W/m 3,2 km/h (1 Bft) 95,74 %
11.02.2019 22:00 1,2 C 0,0 C -1,1 C 91 % 1027,2 hPa 0,0 l/m 0 min 0 min 0 W/m 3,2 km/h (1 Bft) 95,74 %
11.02.2019 22:02 1,2 C 0,0 C -1,1 C 91 % 1027,2 hPa 0,0 l/m 0 min 0 min 0 W/m 3,2 km/h (1 Bft) 91,30 %
11.02.2019 22:04 1,2 C 0,0 C -1,1 C 91 % 1027,3 hPa 0,0 l/m 0 min 0 min 0 W/m 3,2 km/h (1 Bft) 95,74 %
11.02.2019 22:06 1,2 C 0,0 C -1,1 C 91 % 1027,3 hPa 0,0 l/m 0 min 0 min 0 W/m 3,2 km/h (1 Bft) 93,62 %
11.02.2019 22:08 1,2 C 0,0 C -1,1 C 91 % 1027,4 hPa 0,0 l/m 0 min 0 min 0 W/m 3,2 km/h (1 Bft) 95,74 %
11.02.2019 22:10 1,2 C 0,0 C -1,1 C 91 % 1027,4 hPa 0,0 l/m 0 min 0 min 0 W/m 0,0 km/h (0 Bft) 93,88 %
11.02.2019 22:12 1,1 C 0,0 C -1,1 C 91 % 1027,5 hPa 0,0 l/m 0 min 0 min 0 W/m 0,0 km/h (0 Bft) 95,65 %
11.02.2019 22:14 1,1 C 0,0 C -1,7 C 91 % 1027,6 hPa 0,0 l/m 0 min 0 min 0 W/m 3,2 km/h (1 Bft) 95,74 %
11.02.2019 22:16 1,1 C 0,0 C -1,7 C 91 % 1027,5 hPa 0,0 l/m 0 min 0 min 0 W/m 3,2 km/h (1 Bft) 95,74 %
11.02.2019 22:18 1,1 C 0,0 C -1,7 C 91 % 1027,5 hPa 0,0 l/m 0 min 0 min 0 W/m 3,2 km/h (1 Bft) 93,62 %
11.02.2019 22:20 1,1 C 0,0 C -1,7 C 91 % 1027,6 hPa 0,0 l/m 0 min 0 min 0 W/m 3,2 km/h (1 Bft) 91,49 %
11.02.2019 22:22 1,1 C 0,0 C -1,1 C 91 % 1027,6 hPa 0,0 l/m 0 min 0 min 0 W/m 6,4 km/h (2 Bft) 97,87 %
11.02.2019 22:24 1,1 C 0,0 C -1,1 C 91 % 1027,6 hPa 0,0 l/m 0 min 0 min 0 W/m 3,2 km/h (1 Bft) 97,83 %
11.02.2019 22:26 1,1 C 0,0 C -1,1 C 92 % 1027,6 hPa 0,0 l/m 0 min 0 min 0 W/m 3,2 km/h (1 Bft) 97,87 %
11.02.2019 22:28 1,1 C 0,6 C -1,1 C 92 % 1027,6 hPa 0,0 l/m 0 min 0 min 0 W/m 6,4 km/h (2 Bft) 97,87 %
11.02.2019 22:30 1,1 C 0,6 C -0,6 C 92 % 1027,7 hPa 0,0 l/m 0 min 0 min 0 W/m 6,4 km/h (2 Bft) 97,87 %
11.02.2019 22:32 1,1 C 0,0 C -0,6 C 92 % 1027,8 hPa 0,0 l/m 0 min 0 min 0 W/m 6,4 km/h (2 Bft) 97,87 %
11.02.2019 22:34 1,1 C 0,0 C -0,6 C 92 % 1027,8 hPa 0,0 l/m 0 min 0 min 0 W/m 6,4 km/h (2 Bft) 97,87 %
11.02.2019 22:36 1,1 C 0,6 C -0,6 C 92 % 1027,9 hPa 0,0 l/m 0 min 0 min 0 W/m 3,2 km/h (1 Bft) 97,83 %
11.02.2019 22:38 1,1 C 0,0 C -0,6 C 92 % 1027,8 hPa 0,0 l/m 0 min 0 min 0 W/m 6,4 km/h (2 Bft) 97,87 %
11.02.2019 22:40 1,1 C 0,0 C -0,6 C 92 % 1027,9 hPa 0,0 l/m 0 min 0 min 0 W/m 3,2 km/h (1 Bft) 97,87 %
11.02.2019 22:42 1,1 C 0,6 C -0,6 C 92 % 1027,9 hPa 0,0 l/m 0 min 0 min 0 W/m 6,4 km/h (2 Bft) 95,74 %
11.02.2019 22:44 1,1 C 0,6 C -0,6 C 92 % 1028,0 hPa 0,0 l/m 0 min 0 min 0 W/m 6,4 km/h (2 Bft) 97,87 %
11.02.2019 22:46 1,1 C 0,6 C -0,6 C 92 % 1027,9 hPa 0,0 l/m 0 min 0 min 0 W/m 6,4 km/h (2 Bft) 97,87 %
11.02.2019 22:48 1,1 C 0,0 C -0,6 C 92 % 1027,9 hPa 0,0 l/m 0 min 0 min 0 W/m 3,2 km/h (1 Bft) 95,74 %
11.02.2019 22:50 1,1 C 0,0 C -0,6 C 92 % 1027,9 hPa 0,0 l/m 0 min 0 min 0 W/m 6,4 km/h (2 Bft) 97,83 %
11.02.2019 22:52 1,1 C 0,0 C -0,6 C 92 % 1028,0 hPa 0,0 l/m 0 min 0 min 0 W/m 9,7 km/h (2 Bft) 95,74 %
11.02.2019 22:54 1,1 C 0,0 C -0,6 C 92 % 1028,0 hPa 0,0 l/m 0 min 0 min 0 W/m 6,4 km/h (2 Bft) 100,00 %
11.02.2019 22:56 1,1 C 0,0 C -0,6 C 93 % 1028,1 hPa 0,0 l/m 0 min 0 min 0 W/m 3,2 km/h (1 Bft) 97,87 %
11.02.2019 22:58 1,1 C 0,0 C -0,6 C 93 % 1028,1 hPa 0,0 l/m 0 min 0 min 0 W/m 3,2 km/h (1 Bft) 100,00 %
11.02.2019 23:00 1,1 C 0,0 C -0,6 C 93 % 1028,0 hPa 0,0 l/m 0 min 0 min 0 W/m 3,2 km/h (1 Bft) 100,00 %
11.02.2019 23:02 1,0 C 0,0 C -0,6 C 93 % 1028,0 hPa 0,0 l/m 0 min 0 min 0 W/m 6,4 km/h (2 Bft) 100,00 %
11.02.2019 23:04 1,0 C 0,0 C -0,6 C 93 % 1028,0 hPa 0,0 l/m 0 min 0 min 0 W/m 3,2 km/h (1 Bft) 100,00 %
11.02.2019 23:06 1,0 C 0,0 C -0,6 C 93 % 1028,0 hPa 0,0 l/m 0 min 0 min 0 W/m 6,4 km/h (2 Bft) 95,74 %
11.02.2019 23:08 1,0 C 0,0 C -0,6 C 93 % 1028,0 hPa 0,0 l/m 0 min 0 min 0 W/m 6,4 km/h (2 Bft) 100,00 %
11.02.2019 23:10 1,0 C 0,0 C -0,6 C 93 % 1028,0 hPa 0,0 l/m 0 min 0 min 0 W/m 6,4 km/h (2 Bft) 97,87 %
11.02.2019 23:12 1,0 C 0,6 C -0,6 C 93 % 1028,0 hPa 0,0 l/m 0 min 0 min 0 W/m 3,2 km/h (1 Bft) 97,83 %
11.02.2019 23:14 1,0 C 0,6 C -0,6 C 93 % 1028,1 hPa 0,0 l/m 0 min 0 min 0 W/m 6,4 km/h (2 Bft) 95,74 %
11.02.2019 23:16 1,0 C 0,6 C -0,6 C 93 % 1028,1 hPa 0,0 l/m 0 min 0 min 0 W/m 3,2 km/h (1 Bft) 95,74 %
11.02.2019 23:18 1,0 C 0,0 C -0,6 C 93 % 1028,1 hPa 0,0 l/m 0 min 0 min 0 W/m 6,4 km/h (2 Bft) 97,87 %
11.02.2019 23:20 1,0 C 0,6 C -0,6 C 93 % 1028,1 hPa 0,0 l/m 0 min 0 min 0 W/m 3,2 km/h (1 Bft) 95,74 %
11.02.2019 23:22 1,0 C 0,6 C -0,6 C 93 % 1028,2 hPa 0,0 l/m 0 min 0 min 0 W/m 6,4 km/h (2 Bft) 97,87 %
11.02.2019 23:24 1,0 C 0,6 C 0,0 C 93 % 1028,2 hPa 0,0 l/m 0 min 0 min 0 W/m 6,4 km/h (2 Bft) 97,83 %
11.02.2019 23:26 1,0 C 0,6 C 0,0 C 93 % 1028,2 hPa 0,0 l/m 0 min 0 min 0 W/m 6,4 km/h (2 Bft) 95,74 %
11.02.2019 23:28 1,0 C 0,6 C 0,0 C 93 % 1028,1 hPa 0,0 l/m 0 min 0 min 0 W/m 6,4 km/h (2 Bft) 97,87 %
11.02.2019 23:30 1,0 C 0,0 C 0,0 C 93 % 1028,2 hPa 0,0 l/m 0 min 0 min 0 W/m 6,4 km/h (2 Bft) 95,74 %
11.02.2019 23:32 1,0 C 0,6 C 0,0 C 93 % 1028,1 hPa 0,0 l/m 0 min 0 min 0 W/m 3,2 km/h (1 Bft) 95,74 %
11.02.2019 23:34 1,0 C 0,6 C 0,0 C 93 % 1028,2 hPa 0,0 l/m 0 min 0 min 0 W/m 6,4 km/h (2 Bft) 95,65 %
11.02.2019 23:36 1,0 C 0,6 C 0,0 C 93 % 1028,2 hPa 0,0 l/m 0 min 0 min 0 W/m 6,4 km/h (2 Bft) 95,74 %
11.02.2019 23:38 1,0 C 0,6 C 0,0 C 93 % 1028,2 hPa 0,0 l/m 0 min 0 min 0 W/m 6,4 km/h (2 Bft) 97,87 %
11.02.2019 23:40 1,0 C 0,6 C 0,0 C 93 % 1028,2 hPa 0,0 l/m 0 min 0 min 0 W/m 6,4 km/h (2 Bft) 97,87 %
11.02.2019 23:42 1,0 C 0,6 C 0,0 C 93 % 1028,2 hPa 0,0 l/m 0 min 0 min 0 W/m 6,4 km/h (2 Bft) 97,87 %
11.02.2019 23:44 1,0 C 0,6 C 0,0 C 94 % 1028,2 hPa 0,0 l/m 0 min 0 min 0 W/m 6,4 km/h (2 Bft) 93,62 %
11.02.2019 23:46 1,0 C 0,6 C 0,0 C 94 % 1028,2 hPa 0,0 l/m 0 min 0 min 0 W/m 3,2 km/h (1 Bft) 95,65 %
11.02.2019 23:48 1,1 C 0,6 C 0,0 C 94 % 1028,2 hPa 0,0 l/m 0 min 0 min 0 W/m 3,2 km/h (1 Bft) 95,74 %
11.02.2019 23:50 1,1 C 0,6 C 0,0 C 94 % 1028,2 hPa 0,0 l/m 0 min 0 min 0 W/m 6,4 km/h (2 Bft) 95,74 %
11.02.2019 23:52 1,1 C 0,6 C 0,0 C 94 % 1028,2 hPa 0,0 l/m 0 min 0 min 0 W/m 6,4 km/h (2 Bft) 95,74 %
11.02.2019 23:54 1,1 C 0,6 C 0,0 C 94 % 1028,2 hPa 0,0 l/m 0 min 0 min 0 W/m 6,4 km/h (2 Bft) 95,74 %
11.02.2019 23:56 1,1 C 0,6 C 0,0 C 94 % 1028,3 hPa 0,0 l/m 0 min 0 min 0 W/m 6,4 km/h (2 Bft) 97,87 %
11.02.2019 23:58 1,1 C 0,6 C 0,0 C 94 % 1028,3 hPa 0,0 l/m 0 min 0 min 0 W/m 6,4 km/h (2 Bft) 95,65 %
_ Min-Zeit 23:02 21:16 22:14 17:52 00:00 - - - - 19:16 14:50
Minimum _ 1,0 C 0,0 C -1,7 C 83 % 1001,6 hPa - - - - 0,0 km/h (0 Bft) 87,23 %
_ Max-Zeit 13:38 15:54 12:02 00:36 23:56 00:00 09:18 00:07 13:30 13:52 01:16
Maximum _ 6,9 C 10,6 C 7,2 C 98 % 1028,3 hPa 0,2 l/m 2 min 3 min 430 W/m 38,6 km/h
NW (5 Bft)
100,00 %
Durchschnitt _ 3,9 C 3,6 C 2,5 C 93 % 1016,1 hPa #3,2 l/m #2:54 h #4:16 h 121 W/m 13,6 km/h (3 Bft) 97,17 %
© 2019 W. Hausmann